Time,TemperatureF,DewpointF,PressureIn,WindDirection,WindDirectionDegrees,WindSpeedMPH,WindSpeedGustMPH,Humidity,HourlyPrecipIn,Conditions,Clouds,dailyrainin,SoftwareType,DateUTC
2013-02-10 00:01:00,15.4,2.6,0.00,SE,124,3.1,3.1,56,0.00,,---,0.00,VWS V14.00,2013-02-10 07:01:00,
2013-02-10 00:03:00,15.4,2.6,0.00,SE,124,0.0,0.0,56,0.00,,---,0.00,VWS V14.00,2013-02-10 07:03:00,
2013-02-10 00:06:00,15.4,2.6,0.00,SE,124,0.0,0.0,56,0.00,,---,0.00,VWS V14.00,2013-02-10 07:06:00,
2013-02-10 00:08:00,15.4,2.6,0.00,SE,124,0.0,0.0,56,0.00,,---,0.00,VWS V14.00,2013-02-10 07:08:00,
2013-02-10 00:11:00,15.4,2.6,0.00,SE,124,0.0,0.0,56,0.00,,---,0.00,VWS V14.00,2013-02-10 07:11:00,
2013-02-10 00:13:00,15.4,2.9,0.00,SE,124,0.0,0.0,57,0.00,,---,0.00,VWS V14.00,2013-02-10 07:13:00,
2013-02-10 00:16:00,15.3,2.8,0.00,SSW,213,0.0,0.0,57,0.00,,---,0.00,VWS V14.00,2013-02-10 07:16:00,
2013-02-10 00:18:00,15.1,2.6,0.00,SSW,212,0.0,0.0,57,0.00,,---,0.00,VWS V14.00,2013-02-10 07:18:00,
2013-02-10 00:22:00,15.1,2.6,0.00,West,268,0.0,0.0,57,0.00,,---,0.00,VWS V14.00,2013-02-10 07:22:00,
2013-02-10 00:23:00,15.1,2.6,0.00,WNW,292,0.0,2.7,57,0.00,,---,0.00,VWS V14.00,2013-02-10 07:23:00,
2013-02-10 00:27:00,14.9,2.8,0.00,SW,216,0.0,0.0,58,0.00,,---,0.00,VWS V14.00,2013-02-10 07:27:00,
2013-02-10 00:28:00,14.9,2.8,0.00,SW,216,0.0,0.0,58,0.00,,---,0.00,VWS V14.00,2013-02-10 07:28:00,
2013-02-10 00:29:00,14.7,2.6,0.00,SSW,208,0.0,0.0,58,0.00,,---,0.00,VWS V14.00,2013-02-10 07:29:00,
2013-02-10 00:32:00,14.7,2.6,0.00,WNW,292,0.0,0.0,58,0.00,,---,0.00,VWS V14.00,2013-02-10 07:32:00,
2013-02-10 00:33:00,14.7,2.6,0.00,SW,224,2.2,2.7,58,0.00,,---,0.00,VWS V14.00,2013-02-10 07:33:00,
2013-02-10 00:34:00,14.7,2.6,0.00,SW,230,2.2,2.7,58,0.00,,---,0.00,VWS V14.00,2013-02-10 07:34:00,
2013-02-10 00:37:00,14.5,2.5,0.00,SW,222,0.0,0.0,58,0.00,,---,0.00,VWS V14.00,2013-02-10 07:37:00,
2013-02-10 00:38:00,14.5,2.5,0.00,SW,226,0.0,0.0,58,0.00,,---,0.00,VWS V14.00,2013-02-10 07:38:00,
2013-02-10 00:39:00,14.5,2.5,0.00,WNW,294,2.7,2.7,58,0.00,,---,0.00,VWS V14.00,2013-02-10 07:39:00,
2013-02-10 00:42:00,14.5,2.5,0.00,WNW,299,3.1,3.1,58,0.00,,---,0.00,VWS V14.00,2013-02-10 07:42:00,
2013-02-10 00:43:00,14.4,2.3,0.00,WNW,299,0.0,0.0,58,0.00,,---,0.00,VWS V14.00,2013-02-10 07:43:00,
2013-02-10 00:45:00,14.4,1.9,0.00,WNW,300,0.0,0.0,57,0.00,,---,0.00,VWS V14.00,2013-02-10 07:45:00,
2013-02-10 00:47:00,14.4,1.9,0.00,WNW,300,0.0,0.0,57,0.00,,---,0.00,VWS V14.00,2013-02-10 07:47:00,
2013-02-10 00:49:00,14.4,1.9,0.00,WNW,300,0.0,0.0,57,0.00,,---,0.00,VWS V14.00,2013-02-10 07:49:00,
2013-02-10 00:50:00,14.4,1.9,0.00,WNW,290,0.0,0.0,57,0.00,,---,0.00,VWS V14.00,2013-02-10 07:50:00,
2013-02-10 00:52:00,14.4,1.9,0.00,NW,315,0.0,0.0,57,0.00,,---,0.00,VWS V14.00,2013-02-10 07:52:00,
2013-02-10 00:54:00,14.4,1.9,0.00,NW,313,0.0,0.0,57,0.00,,---,0.00,VWS V14.00,2013-02-10 07:54:00,
2013-02-10 00:55:00,14.4,1.5,0.00,NW,311,0.0,0.0,56,0.00,,---,0.00,VWS V14.00,2013-02-10 07:55:00,
2013-02-10 00:57:00,14.4,1.2,0.00,West,276,0.0,3.1,55,0.00,,---,0.00,VWS V14.00,2013-02-10 07:57:00,
2013-02-10 00:59:00,14.2,1.4,0.00,West,274,0.0,0.0,56,0.00,,---,0.00,VWS V14.00,2013-02-10 07:59:00,
2013-02-10 01:00:00,14.2,1.4,0.00,West,273,3.1,3.1,56,0.00,,---,0.00,VWS V14.00,2013-02-10 08:00:00,
2013-02-10 01:02:00,14.0,1.2,0.00,West,271,0.0,0.0,56,0.00,,---,0.00,VWS V14.00,2013-02-10 08:02:00,
2013-02-10 01:04:00,14.0,1.2,0.00,SW,219,0.0,0.0,56,0.00,,---,0.00,VWS V14.00,2013-02-10 08:04:00,
2013-02-10 01:05:00,13.8,1.0,0.00,WSW,239,2.2,2.2,56,0.00,,---,0.00,VWS V14.00,2013-02-10 08:05:00,
2013-02-10 01:07:00,13.8,1.0,0.00,NW,314,2.7,3.1,56,0.00,,---,0.00,VWS V14.00,2013-02-10 08:07:00,
2013-02-10 01:09:00,13.6,0.9,0.00,SW,223,3.1,5.4,56,0.00,,---,0.00,VWS V14.00,2013-02-10 08:09:00,
2013-02-10 01:10:00,13.6,0.9,0.00,SE,128,2.7,2.7,56,0.00,,---,0.00,VWS V14.00,2013-02-10 08:10:00,
2013-02-10 01:12:00,13.6,0.9,0.00,ESE,109,2.7,2.7,56,0.00,,---,0.00,VWS V14.00,2013-02-10 08:12:00,
2013-02-10 01:14:00,13.6,0.9,0.00,ESE,104,0.0,0.0,56,0.00,,---,0.00,VWS V14.00,2013-02-10 08:14:00,
2013-02-10 01:15:00,13.6,0.9,0.00,East,94,0.0,0.0,56,0.00,,---,0.00,VWS V14.00,2013-02-10 08:15:00,
2013-02-10 01:17:00,13.6,0.9,0.00,ENE,70,0.0,0.0,56,0.00,,---,0.00,VWS V14.00,2013-02-10 08:17:00,
2013-02-10 01:19:00,13.6,0.9,0.00,WSW,238,3.6,3.6,56,0.00,,---,0.00,VWS V14.00,2013-02-10 08:19:00,
2013-02-10 01:20:00,13.6,0.9,0.00,NW,304,3.1,3.1,56,0.00,,---,0.00,VWS V14.00,2013-02-10 08:20:00,
2013-02-10 01:22:00,13.6,0.9,0.00,South,187,2.7,2.7,56,0.00,,---,0.00,VWS V14.00,2013-02-10 08:22:00,
2013-02-10 01:23:00,13.6,0.9,0.00,SSE,158,3.6,3.6,56,0.00,,---,0.00,VWS V14.00,2013-02-10 08:23:00,
2013-02-10 01:24:00,13.6,0.9,0.00,ESE,117,5.4,6.3,56,0.00,,---,0.00,VWS V14.00,2013-02-10 08:24:00,
2013-02-10 01:25:00,13.5,0.7,0.00,ESE,110,3.1,3.6,56,0.00,,---,0.00,VWS V14.00,2013-02-10 08:25:00,
2013-02-10 01:27:00,13.5,0.7,0.00,ESE,122,2.7,4.0,56,0.00,,---,0.00,VWS V14.00,2013-02-10 08:27:00,
2013-02-10 01:28:00,13.5,0.7,0.00,ESE,122,2.2,2.2,56,0.00,,---,0.00,VWS V14.00,2013-02-10 08:28:00,
2013-02-10 01:29:00,13.5,0.7,0.00,ENE,66,0.0,0.0,56,0.00,,---,0.00,VWS V14.00,2013-02-10 08:29:00,
2013-02-10 01:30:00,13.5,0.7,0.00,ENE,66,0.0,0.0,56,0.00,,---,0.00,VWS V14.00,2013-02-10 08:30:00,
2013-02-10 01:32:00,13.5,0.7,0.00,East,93,2.2,3.6,56,0.00,,---,0.00,VWS V14.00,2013-02-10 08:32:00,
2013-02-10 01:33:00,13.5,0.7,0.00,East,93,0.0,3.6,56,0.00,,---,0.00,VWS V14.00,2013-02-10 08:33:00,
2013-02-10 01:34:00,13.5,0.7,0.00,ESE,118,10.5,10.5,56,0.00,,---,0.00,VWS V14.00,2013-02-10 08:34:00,
2013-02-10 01:36:00,13.5,0.7,0.00,South,179,0.0,3.6,56,0.00,,---,0.00,VWS V14.00,2013-02-10 08:36:00,
2013-02-10 01:37:00,13.5,0.7,0.00,South,184,0.0,0.0,56,0.00,,---,0.00,VWS V14.00,2013-02-10 08:37:00,
2013-02-10 01:38:00,13.5,0.7,0.00,South,184,0.0,0.0,56,0.00,,---,0.00,VWS V14.00,2013-02-10 08:38:00,
2013-02-10 01:39:00,13.5,0.7,0.00,SSW,195,0.0,0.0,56,0.00,,---,0.00,VWS V14.00,2013-02-10 08:39:00,
2013-02-10 01:41:00,13.5,0.7,0.00,South,187,0.0,0.0,56,0.00,,---,0.00,VWS V14.00,2013-02-10 08:41:00,
2013-02-10 01:42:00,13.5,0.7,0.00,South,190,0.0,0.0,56,0.00,,---,0.00,VWS V14.00,2013-02-10 08:42:00,
2013-02-10 01:43:00,13.5,0.7,0.00,South,190,0.0,0.0,56,0.00,,---,0.00,VWS V14.00,2013-02-10 08:43:00,
2013-02-10 01:44:00,13.3,0.5,0.00,SSW,197,0.0,0.0,56,0.00,,---,0.00,VWS V14.00,2013-02-10 08:44:00,
2013-02-10 01:46:00,13.3,0.5,0.00,NW,305,0.0,0.0,56,0.00,,---,0.00,VWS V14.00,2013-02-10 08:46:00,
2013-02-10 01:48:00,13.3,0.5,0.00,WNW,295,0.0,0.0,56,0.00,,---,0.00,VWS V14.00,2013-02-10 08:48:00,
2013-02-10 01:49:00,13.3,0.5,0.00,WNW,290,0.0,0.0,56,0.00,,---,0.00,VWS V14.00,2013-02-10 08:49:00,
2013-02-10 01:51:00,13.3,0.5,0.00,SW,234,0.0,0.0,56,0.00,,---,0.00,VWS V14.00,2013-02-10 08:51:00,
2013-02-10 01:53:00,13.3,0.5,0.00,WSW,249,0.0,0.0,56,0.00,,---,0.00,VWS V14.00,2013-02-10 08:53:00,
2013-02-10 01:54:00,13.1,0.4,0.00,WSW,256,0.0,0.0,56,0.00,,---,0.00,VWS V14.00,2013-02-10 08:54:00,
2013-02-10 01:56:00,13.1,0.4,0.00,WNW,303,0.0,4.0,56,0.00,,---,0.00,VWS V14.00,2013-02-10 08:56:00,
2013-02-10 01:58:00,13.1,0.4,0.00,WNW,302,2.7,4.0,56,0.00,,---,0.00,VWS V14.00,2013-02-10 08:58:00,
2013-02-10 01:59:00,13.1,0.4,0.00,WNW,299,0.0,0.0,56,0.00,,---,0.00,VWS V14.00,2013-02-10 08:59:00,
2013-02-10 02:01:00,13.1,0.4,0.00,WNW,299,0.0,0.0,56,0.00,,---,0.00,VWS V14.00,2013-02-10 09:01:00,
2013-02-10 02:03:00,12.9,0.2,0.00,WNW,298,0.0,0.0,56,0.00,,---,0.00,VWS V14.00,2013-02-10 09:03:00,
2013-02-10 02:04:00,12.9,0.2,0.00,WNW,286,0.0,0.0,56,0.00,,---,0.00,VWS V14.00,2013-02-10 09:04:00,
2013-02-10 02:06:00,12.9,0.2,0.00,WNW,295,0.0,0.0,56,0.00,,---,0.00,VWS V14.00,2013-02-10 09:06:00,
2013-02-10 02:08:00,12.9,0.2,0.00,West,277,2.7,2.7,56,0.00,,---,0.00,VWS V14.00,2013-02-10 09:08:00,
2013-02-10 02:09:00,12.9,0.2,0.00,SSE,159,0.0,6.3,56,0.00,,---,0.00,VWS V14.00,2013-02-10 09:09:00,
2013-02-10 02:11:00,12.9,0.2,0.00,SW,217,0.0,0.0,56,0.00,,---,0.00,VWS V14.00,2013-02-10 09:11:00,
2013-02-10 02:13:00,12.9,0.2,0.00,WNW,303,0.0,0.0,56,0.00,,---,0.00,VWS V14.00,2013-02-10 09:13:00,
2013-02-10 02:15:00,13.1,0.4,0.00,SSE,158,3.1,3.1,56,0.00,,---,0.00,VWS V14.00,2013-02-10 09:15:00,
2013-02-10 02:16:00,13.1,0.4,0.00,NW,306,2.7,2.7,56,0.00,,---,0.00,VWS V14.00,2013-02-10 09:16:00,
2013-02-10 02:18:00,13.1,0.4,0.00,WNW,297,0.0,0.0,56,0.00,,---,0.00,VWS V14.00,2013-02-10 09:18:00,
2013-02-10 02:20:00,13.3,0.5,0.00,WNW,294,0.0,0.0,56,0.00,,---,0.00,VWS V14.00,2013-02-10 09:20:00,
2013-02-10 02:22:00,13.3,0.5,0.00,SW,230,2.2,2.2,56,0.00,,---,0.00,VWS V14.00,2013-02-10 09:22:00,
2013-02-10 02:23:00,13.3,0.5,0.00,NW,321,3.1,3.6,56,0.00,,---,0.00,VWS V14.00,2013-02-10 09:23:00,
2013-02-10 02:25:00,13.3,0.5,0.00,NNW,328,0.0,0.0,56,0.00,,---,0.00,VWS V14.00,2013-02-10 09:25:00,
2013-02-10 02:27:00,13.3,0.5,0.00,East,94,0.0,0.0,56,0.00,,---,0.00,VWS V14.00,2013-02-10 09:27:00,
2013-02-10 02:28:00,13.3,0.5,0.00,SE,144,5.4,7.6,56,0.00,,---,0.00,VWS V14.00,2013-02-10 09:28:00,
2013-02-10 02:30:00,13.3,0.5,0.00,South,170,0.0,3.6,56,0.00,,---,0.00,VWS V14.00,2013-02-10 09:30:00,
2013-02-10 02:32:00,13.3,0.5,0.00,SSE,156,0.0,5.4,56,0.00,,---,0.00,VWS V14.00,2013-02-10 09:32:00,
2013-02-10 02:33:00,13.3,0.5,0.00,SE,128,4.9,8.1,56,0.00,,---,0.00,VWS V14.00,2013-02-10 09:33:00,
2013-02-10 02:35:00,13.3,0.5,0.00,East,95,5.4,8.1,56,0.00,,---,0.00,VWS V14.00,2013-02-10 09:35:00,
2013-02-10 02:37:00,13.3,0.5,0.00,SSW,209,2.7,4.0,56,0.00,,---,0.00,VWS V14.00,2013-02-10 09:37:00,
2013-02-10 02:38:00,13.3,0.5,0.00,SW,233,0.0,0.0,56,0.00,,---,0.00,VWS V14.00,2013-02-10 09:38:00,
2013-02-10 02:41:00,13.3,0.5,0.00,WNW,297,0.0,2.7,56,0.00,,---,0.00,VWS V14.00,2013-02-10 09:41:00,
2013-02-10 02:42:00,13.3,0.5,0.00,WNW,297,0.0,0.0,56,0.00,,---,0.00,VWS V14.00,2013-02-10 09:42:00,
2013-02-10 02:43:00,13.3,0.5,0.00,WNW,286,0.0,0.0,56,0.00,,---,0.00,VWS V14.00,2013-02-10 09:43:00,
2013-02-10 02:44:00,13.3,0.5,0.00,WNW,298,0.0,0.0,56,0.00,,---,0.00,VWS V14.00,2013-02-10 09:44:00,
2013-02-10 02:46:00,13.3,0.5,0.00,WSW,249,2.2,2.2,56,0.00,,---,0.00,VWS V14.00,2013-02-10 09:46:00,
2013-02-10 02:47:00,13.3,0.5,0.00,West,272,2.2,2.7,56,0.00,,---,0.00,VWS V14.00,2013-02-10 09:47:00,
2013-02-10 02:48:00,13.3,0.5,0.00,West,267,0.0,0.0,56,0.00,,---,0.00,VWS V14.00,2013-02-10 09:48:00,
2013-02-10 02:49:00,13.3,0.5,0.00,West,264,0.0,0.0,56,0.00,,---,0.00,VWS V14.00,2013-02-10 09:49:00,
2013-02-10 02:51:00,13.3,0.5,0.00,West,266,0.0,0.0,56,0.00,,---,0.00,VWS V14.00,2013-02-10 09:51:00,
2013-02-10 02:52:00,13.3,0.5,0.00,West,267,0.0,0.0,56,0.00,,---,0.00,VWS V14.00,2013-02-10 09:52:00,
2013-02-10 02:53:00,13.3,0.5,0.00,NW,304,0.0,2.2,56,0.00,,---,0.00,VWS V14.00,2013-02-10 09:53:00,
2013-02-10 02:54:00,13.3,0.5,0.00,NW,304,0.0,0.0,56,0.00,,---,0.00,VWS V14.00,2013-02-10 09:54:00,
2013-02-10 02:56:00,13.3,0.5,0.00,East,86,0.0,3.1,56,0.00,,---,0.00,VWS V14.00,2013-02-10 09:56:00,
2013-02-10 02:57:00,13.3,0.5,0.00,ESE,119,2.2,3.6,56,0.00,,---,0.00,VWS V14.00,2013-02-10 09:57:00,
2013-02-10 02:59:00,13.3,0.5,0.00,East,101,0.0,0.0,56,0.00,,---,0.00,VWS V14.00,2013-02-10 09:59:00,
2013-02-10 03:01:00,13.3,0.5,0.00,East,79,3.6,4.0,56,0.00,,---,0.00,VWS V14.00,2013-02-10 10:01:00,
2013-02-10 03:02:00,13.3,0.5,0.00,ESE,120,2.2,3.1,56,0.00,,---,0.00,VWS V14.00,2013-02-10 10:02:00,
2013-02-10 03:04:00,13.3,0.5,0.00,East,87,4.0,4.0,56,0.00,,---,0.00,VWS V14.00,2013-02-10 10:04:00,
2013-02-10 03:06:00,13.3,0.5,0.00,East,89,2.7,2.7,56,0.00,,---,0.00,VWS V14.00,2013-02-10 10:06:00,
2013-02-10 03:07:00,13.3,0.5,0.00,ENE,60,2.7,2.7,56,0.00,,---,0.00,VWS V14.00,2013-02-10 10:07:00,
2013-02-10 03:09:00,13.3,0.5,0.00,East,101,0.0,0.0,56,0.00,,---,0.00,VWS V14.00,2013-02-10 10:09:00,
2013-02-10 03:11:00,13.3,0.5,0.00,SSW,213,2.7,2.7,56,0.00,,---,0.00,VWS V14.00,2013-02-10 10:11:00,
2013-02-10 03:12:00,13.3,0.5,0.00,SSW,195,2.7,2.7,56,0.00,,---,0.00,VWS V14.00,2013-02-10 10:12:00,
2013-02-10 03:14:00,13.3,0.5,0.00,SSE,158,0.0,0.0,56,0.00,,---,0.00,VWS V14.00,2013-02-10 10:14:00,
2013-02-10 03:15:00,13.3,0.5,0.00,SE,140,0.0,0.0,56,0.00,,---,0.00,VWS V14.00,2013-02-10 10:15:00,
2013-02-10 03:16:00,13.3,0.5,0.00,SE,140,0.0,0.0,56,0.00,,---,0.00,VWS V14.00,2013-02-10 10:16:00,
2013-02-10 03:17:00,13.3,0.5,0.00,SSE,152,0.0,0.0,56,0.00,,---,0.00,VWS V14.00,2013-02-10 10:17:00,
2013-02-10 03:19:00,13.3,0.5,0.00,SSE,152,0.0,0.0,56,0.00,,---,0.00,VWS V14.00,2013-02-10 10:19:00,
2013-02-10 03:20:00,13.3,0.5,0.00,SSE,152,0.0,0.0,56,0.00,,---,0.00,VWS V14.00,2013-02-10 10:20:00,
2013-02-10 03:21:00,13.3,0.5,0.00,SSW,210,0.0,0.0,56,0.00,,---,0.00,VWS V14.00,2013-02-10 10:21:00,
2013-02-10 03:23:00,13.3,0.5,0.00,SSW,210,0.0,0.0,56,0.00,,---,0.00,VWS V14.00,2013-02-10 10:23:00,
2013-02-10 03:24:00,13.3,0.5,0.00,South,169,0.0,0.0,56,0.00,,---,0.00,VWS V14.00,2013-02-10 10:24:00,
2013-02-10 03:25:00,13.3,0.5,0.00,South,171,0.0,0.0,56,0.00,,---,0.00,VWS V14.00,2013-02-10 10:25:00,
2013-02-10 03:26:00,13.3,0.5,0.00,WNW,300,0.0,5.4,56,0.00,,---,0.00,VWS V14.00,2013-02-10 10:26:00,
2013-02-10 03:28:00,13.1,0.4,0.00,WNW,302,3.6,3.6,56,0.00,,---,0.00,VWS V14.00,2013-02-10 10:28:00,
2013-02-10 03:29:00,13.1,0.4,0.00,WNW,301,0.0,0.0,56,0.00,,---,0.00,VWS V14.00,2013-02-10 10:29:00,
2013-02-10 03:30:00,13.1,0.4,0.00,WNW,302,0.0,0.0,56,0.00,,---,0.00,VWS V14.00,2013-02-10 10:30:00,
2013-02-10 03:31:00,13.1,0.4,0.00,NW,304,0.0,0.0,56,0.00,,---,0.00,VWS V14.00,2013-02-10 10:31:00,
2013-02-10 03:33:00,13.1,0.4,0.00,WNW,303,0.0,0.0,56,0.00,,---,0.00,VWS V14.00,2013-02-10 10:33:00,
2013-02-10 03:34:00,13.1,0.4,0.00,WNW,303,0.0,0.0,56,0.00,,---,0.00,VWS V14.00,2013-02-10 10:34:00,
2013-02-10 03:35:00,13.1,0.4,0.00,WNW,300,0.0,0.0,56,0.00,,---,0.00,VWS V14.00,2013-02-10 10:35:00,
2013-02-10 03:36:00,12.9,0.2,0.00,WNW,297,0.0,0.0,56,0.00,,---,0.00,VWS V14.00,2013-02-10 10:36:00,
2013-02-10 03:38:00,12.9,0.2,0.00,WSW,253,0.0,0.0,56,0.00,,---,0.00,VWS V14.00,2013-02-10 10:38:00,
2013-02-10 03:39:00,12.9,0.2,0.00,WSW,249,0.0,0.0,56,0.00,,---,0.00,VWS V14.00,2013-02-10 10:39:00,
2013-02-10 03:40:00,12.9,0.2,0.00,West,259,0.0,0.0,56,0.00,,---,0.00,VWS V14.00,2013-02-10 10:40:00,
2013-02-10 03:41:00,12.9,0.2,0.00,West,259,0.0,0.0,56,0.00,,---,0.00,VWS V14.00,2013-02-10 10:41:00,
2013-02-10 03:43:00,12.9,0.2,0.00,SSE,162,3.1,3.1,56,0.00,,---,0.00,VWS V14.00,2013-02-10 10:43:00,
2013-02-10 03:45:00,12.9,0.2,0.00,ESE,122,0.0,2.2,56,0.00,,---,0.00,VWS V14.00,2013-02-10 10:45:00,
2013-02-10 03:46:00,12.9,0.2,0.00,SE,125,0.0,0.0,56,0.00,,---,0.00,VWS V14.00,2013-02-10 10:46:00,
2013-02-10 03:48:00,12.9,0.2,0.00,South,173,0.0,0.0,56,0.00,,---,0.00,VWS V14.00,2013-02-10 10:48:00,
2013-02-10 03:50:00,12.9,0.2,0.00,SW,236,0.0,2.7,56,0.00,,---,0.00,VWS V14.00,2013-02-10 10:50:00,
2013-02-10 03:51:00,12.7,0.0,0.00,West,281,0.0,0.0,56,0.00,,---,0.00,VWS V14.00,2013-02-10 10:51:00,
2013-02-10 03:53:00,12.7,0.0,0.00,West,278,0.0,0.0,56,0.00,,---,0.00,VWS V14.00,2013-02-10 10:53:00,
2013-02-10 03:55:00,12.7,0.0,0.00,WNW,298,0.0,0.0,56,0.00,,---,0.00,VWS V14.00,2013-02-10 10:55:00,
2013-02-10 03:56:00,12.7,0.0,0.00,East,94,5.8,5.8,56,0.00,,---,0.00,VWS V14.00,2013-02-10 10:56:00,
2013-02-10 03:58:00,12.7,0.0,0.00,East,99,2.2,2.7,56,0.00,,---,0.00,VWS V14.00,2013-02-10 10:58:00,
2013-02-10 04:00:00,12.7,0.0,0.00,SSE,156,0.0,0.0,56,0.00,,---,0.00,VWS V14.00,2013-02-10 11:00:00,
2013-02-10 04:02:00,12.6,-0.2,0.00,South,172,0.0,0.0,56,0.00,,---,0.00,VWS V14.00,2013-02-10 11:02:00,
2013-02-10 04:04:00,12.6,-0.2,0.00,SE,127,0.0,2.7,56,0.00,,---,0.00,VWS V14.00,2013-02-10 11:04:00,
2013-02-10 04:05:00,12.6,-0.2,0.00,SE,126,0.0,0.0,56,0.00,,---,0.00,VWS V14.00,2013-02-10 11:05:00,
2013-02-10 04:07:00,12.6,-0.2,0.00,WNW,300,2.7,2.7,56,0.00,,---,0.00,VWS V14.00,2013-02-10 11:07:00,
2013-02-10 04:09:00,12.6,-0.2,0.00,NW,314,0.0,0.0,56,0.00,,---,0.00,VWS V14.00,2013-02-10 11:09:00,
2013-02-10 04:10:00,12.6,-0.2,0.00,WNW,299,0.0,0.0,56,0.00,,---,0.00,VWS V14.00,2013-02-10 11:10:00,
2013-02-10 04:12:00,12.6,-0.2,0.00,WNW,300,0.0,0.0,56,0.00,,---,0.00,VWS V14.00,2013-02-10 11:12:00,
2013-02-10 04:14:00,12.6,-0.2,0.00,WNW,302,2.7,2.7,56,0.00,,---,0.00,VWS V14.00,2013-02-10 11:14:00,
2013-02-10 04:15:00,12.6,-0.2,0.00,NW,308,0.0,5.4,56,0.00,,---,0.00,VWS V14.00,2013-02-10 11:15:00,
2013-02-10 04:17:00,12.6,-0.2,0.00,West,260,0.0,2.7,56,0.00,,---,0.00,VWS V14.00,2013-02-10 11:17:00,
2013-02-10 04:19:00,12.6,-0.2,0.00,SW,228,0.0,0.0,56,0.00,,---,0.00,VWS V14.00,2013-02-10 11:19:00,
2013-02-10 04:20:00,12.6,-0.2,0.00,WNW,303,2.7,3.1,56,0.00,,---,0.00,VWS V14.00,2013-02-10 11:20:00,
2013-02-10 04:22:00,12.6,-0.2,0.00,NW,305,3.6,3.6,56,0.00,,---,0.00,VWS V14.00,2013-02-10 11:22:00,
2013-02-10 04:24:00,12.6,-0.2,0.00,NW,312,3.6,4.0,56,0.00,,---,0.00,VWS V14.00,2013-02-10 11:24:00,
2013-02-10 04:25:00,12.6,-0.2,0.00,ENE,57,2.7,2.7,56,0.00,,---,0.00,VWS V14.00,2013-02-10 11:25:00,
2013-02-10 04:27:00,12.6,-0.2,0.00,East,92,0.0,2.7,56,0.00,,---,0.00,VWS V14.00,2013-02-10 11:27:00,
2013-02-10 04:29:00,12.6,-0.2,0.00,SE,138,5.8,5.8,56,0.00,,---,0.00,VWS V14.00,2013-02-10 11:29:00,
2013-02-10 04:30:00,12.6,-0.2,0.00,ESE,120,4.0,4.0,56,0.00,,---,0.00,VWS V14.00,2013-02-10 11:30:00,
2013-02-10 04:31:00,12.6,-0.2,0.00,SE,128,3.1,4.0,56,0.00,,---,0.00,VWS V14.00,2013-02-10 11:31:00,
2013-02-10 04:33:00,12.6,-0.2,0.00,SSW,206,0.0,0.0,56,0.00,,---,0.00,VWS V14.00,2013-02-10 11:33:00,
2013-02-10 04:34:00,12.6,-0.2,0.00,South,169,0.0,0.0,56,0.00,,---,0.00,VWS V14.00,2013-02-10 11:34:00,
2013-02-10 04:35:00,12.6,-0.2,0.00,South,172,0.0,0.0,56,0.00,,---,0.00,VWS V14.00,2013-02-10 11:35:00,
2013-02-10 04:36:00,12.6,-0.2,0.00,South,172,0.0,0.0,56,0.00,,---,0.00,VWS V14.00,2013-02-10 11:36:00,
2013-02-10 04:38:00,12.6,-0.2,0.00,South,171,0.0,0.0,56,0.00,,---,0.00,VWS V14.00,2013-02-10 11:38:00,
2013-02-10 04:39:00,12.6,-0.2,0.00,SSW,205,0.0,0.0,56,0.00,,---,0.00,VWS V14.00,2013-02-10 11:39:00,
2013-02-10 04:40:00,12.6,-0.2,0.00,SSW,208,0.0,0.0,56,0.00,,---,0.00,VWS V14.00,2013-02-10 11:40:00,
2013-02-10 04:41:00,12.6,-0.2,0.00,SSW,209,0.0,0.0,56,0.00,,---,0.00,VWS V14.00,2013-02-10 11:41:00,
2013-02-10 04:43:00,12.6,-0.2,0.00,SSW,210,0.0,0.0,56,0.00,,---,0.00,VWS V14.00,2013-02-10 11:43:00,
2013-02-10 04:44:00,12.6,-0.2,0.00,WNW,293,2.2,3.1,56,0.00,,---,0.00,VWS V14.00,2013-02-10 11:44:00,
2013-02-10 04:45:00,12.6,-0.2,0.00,WNW,293,2.2,2.7,56,0.00,,---,0.00,VWS V14.00,2013-02-10 11:45:00,
2013-02-10 04:46:00,12.6,-0.2,0.00,WNW,293,2.2,2.7,56,0.00,,---,0.00,VWS V14.00,2013-02-10 11:46:00,
2013-02-10 04:48:00,12.4,-0.3,0.00,WNW,293,0.0,0.0,56,0.00,,---,0.00,VWS V14.00,2013-02-10 11:48:00,
2013-02-10 04:49:00,12.4,-0.3,0.00,WNW,293,0.0,0.0,56,0.00,,---,0.00,VWS V14.00,2013-02-10 11:49:00,
2013-02-10 04:51:00,12.4,-0.3,0.00,WNW,293,0.0,0.0,56,0.00,,---,0.00,VWS V14.00,2013-02-10 11:51:00,
2013-02-10 04:53:00,12.4,-0.3,0.00,WNW,293,0.0,0.0,56,0.00,,---,0.00,VWS V14.00,2013-02-10 11:53:00,
2013-02-10 04:55:00,12.4,-0.3,0.00,WNW,292,0.0,0.0,56,0.00,,---,0.00,VWS V14.00,2013-02-10 11:55:00,
2013-02-10 04:56:00,12.4,-0.3,0.00,WNW,292,0.0,0.0,56,0.00,,---,0.00,VWS V14.00,2013-02-10 11:56:00,
2013-02-10 04:58:00,12.2,-0.5,0.00,WNW,292,0.0,0.0,56,0.00,,---,0.00,VWS V14.00,2013-02-10 11:58:00,
2013-02-10 05:00:00,12.2,-0.5,0.00,WNW,291,0.0,0.0,56,0.00,,---,0.00,VWS V14.00,2013-02-10 12:00:00,
2013-02-10 05:01:00,12.2,-0.5,0.00,WNW,291,0.0,0.0,56,0.00,,---,0.00,VWS V14.00,2013-02-10 12:01:00,
2013-02-10 05:03:00,12.2,-0.5,0.00,WNW,291,0.0,0.0,56,0.00,,---,0.00,VWS V14.00,2013-02-10 12:03:00,
2013-02-10 05:05:00,12.2,-0.5,0.00,WNW,291,0.0,0.0,56,0.00,,---,0.00,VWS V14.00,2013-02-10 12:05:00,
2013-02-10 05:06:00,12.2,-0.5,0.00,WNW,291,0.0,0.0,56,0.00,,---,0.00,VWS V14.00,2013-02-10 12:06:00,
2013-02-10 05:09:00,12.2,-0.5,0.00,WNW,291,0.0,0.0,56,0.00,,---,0.00,VWS V14.00,2013-02-10 12:09:00,
2013-02-10 05:10:00,12.2,-0.5,0.00,WNW,289,0.0,0.0,56,0.00,,---,0.00,VWS V14.00,2013-02-10 12:10:00,
2013-02-10 05:11:00,12.2,-0.5,0.00,WNW,289,0.0,0.0,56,0.00,,---,0.00,VWS V14.00,2013-02-10 12:11:00,
2013-02-10 05:14:00,12.2,-0.5,0.00,WNW,289,0.0,0.0,56,0.00,,---,0.00,VWS V14.00,2013-02-10 12:14:00,
2013-02-10 05:15:00,12.2,-0.5,0.00,WNW,289,0.0,0.0,56,0.00,,---,0.00,VWS V14.00,2013-02-10 12:15:00,
2013-02-10 05:16:00,12.2,-0.5,0.00,WNW,289,0.0,0.0,56,0.00,,---,0.00,VWS V14.00,2013-02-10 12:16:00,
2013-02-10 05:17:00,12.2,-0.5,0.00,WNW,289,0.0,0.0,56,0.00,,---,0.00,VWS V14.00,2013-02-10 12:17:00,
2013-02-10 05:19:00,12.2,-0.5,0.00,WNW,289,0.0,0.0,56,0.00,,---,0.00,VWS V14.00,2013-02-10 12:19:00,
2013-02-10 05:20:00,12.2,-0.5,0.00,WNW,289,0.0,0.0,56,0.00,,---,0.00,VWS V14.00,2013-02-10 12:20:00,
2013-02-10 05:21:00,12.2,-0.5,0.00,WNW,289,0.0,0.0,56,0.00,,---,0.00,VWS V14.00,2013-02-10 12:21:00,
2013-02-10 05:22:00,12.2,-0.5,0.00,WNW,289,0.0,0.0,56,0.00,,---,0.00,VWS V14.00,2013-02-10 12:22:00,
2013-02-10 05:24:00,12.2,-0.5,0.00,WNW,289,0.0,0.0,56,0.00,,---,0.00,VWS V14.00,2013-02-10 12:24:00,
2013-02-10 05:25:00,12.0,-0.6,0.00,WNW,289,0.0,0.0,56,0.00,,---,0.00,VWS V14.00,2013-02-10 12:25:00,
2013-02-10 05:27:00,12.0,-0.6,0.00,WNW,289,0.0,0.0,56,0.00,,---,0.00,VWS V14.00,2013-02-10 12:27:00,
2013-02-10 05:29:00,12.0,-0.6,0.00,West,279,0.0,0.0,56,0.00,,---,0.00,VWS V14.00,2013-02-10 12:29:00,
2013-02-10 05:30:00,12.0,-0.6,0.00,West,279,0.0,0.0,56,0.00,,---,0.00,VWS V14.00,2013-02-10 12:30:00,
2013-02-10 05:32:00,12.0,-0.6,0.00,West,276,0.0,0.0,56,0.00,,---,0.00,VWS V14.00,2013-02-10 12:32:00,
2013-02-10 05:34:00,12.0,-0.6,0.00,WNW,283,0.0,0.0,56,0.00,,---,0.00,VWS V14.00,2013-02-10 12:34:00,
2013-02-10 05:35:00,12.0,-0.6,0.00,West,273,0.0,0.0,56,0.00,,---,0.00,VWS V14.00,2013-02-10 12:35:00,
2013-02-10 05:37:00,11.8,-0.8,0.00,West,263,0.0,0.0,56,0.00,,---,0.00,VWS V14.00,2013-02-10 12:37:00,
2013-02-10 05:39:00,11.8,-0.8,0.00,West,259,0.0,0.0,56,0.00,,---,0.00,VWS V14.00,2013-02-10 12:39:00,
2013-02-10 05:41:00,11.8,-0.8,0.00,West,267,0.0,0.0,56,0.00,,---,0.00,VWS V14.00,2013-02-10 12:41:00,
2013-02-10 05:42:00,11.8,-0.8,0.00,West,268,0.0,0.0,56,0.00,,---,0.00,VWS V14.00,2013-02-10 12:42:00,
2013-02-10 05:44:00,11.8,-0.8,0.00,West,260,0.0,0.0,56,0.00,,---,0.00,VWS V14.00,2013-02-10 12:44:00,
2013-02-10 05:46:00,11.8,-0.8,0.00,West,260,0.0,0.0,56,0.00,,---,0.00,VWS V14.00,2013-02-10 12:46:00,
2013-02-10 05:47:00,11.8,-0.8,0.00,West,260,0.0,0.0,56,0.00,,---,0.00,VWS V14.00,2013-02-10 12:47:00,
2013-02-10 05:49:00,11.8,-0.8,0.00,WSW,252,0.0,0.0,56,0.00,,---,0.00,VWS V14.00,2013-02-10 12:49:00,
2013-02-10 05:51:00,11.8,-0.8,0.00,WSW,249,0.0,0.0,56,0.00,,---,0.00,VWS V14.00,2013-02-10 12:51:00,
2013-02-10 05:52:00,11.8,-0.8,0.00,West,259,0.0,0.0,56,0.00,,---,0.00,VWS V14.00,2013-02-10 12:52:00,
2013-02-10 05:54:00,11.7,-1.0,0.00,WSW,250,0.0,0.0,56,0.00,,---,0.00,VWS V14.00,2013-02-10 12:54:00,
2013-02-10 05:56:00,11.7,-1.0,0.00,WSW,257,0.0,0.0,56,0.00,,---,0.00,VWS V14.00,2013-02-10 12:56:00,
2013-02-10 05:57:00,11.7,-1.0,0.00,WSW,253,0.0,0.0,56,0.00,,---,0.00,VWS V14.00,2013-02-10 12:57:00,
2013-02-10 05:59:00,11.7,-1.0,0.00,WSW,257,0.0,0.0,56,0.00,,---,0.00,VWS V14.00,2013-02-10 12:59:00,
2013-02-10 06:01:00,11.7,-1.0,0.00,WSW,257,0.0,0.0,56,0.00,,---,0.00,VWS V14.00,2013-02-10 13:01:00,
2013-02-10 06:02:00,11.8,-0.8,0.00,WSW,257,0.0,0.0,56,0.00,,---,0.00,VWS V14.00,2013-02-10 13:02:00,
2013-02-10 06:04:00,11.8,-0.8,0.00,WSW,257,0.0,0.0,56,0.00,,---,0.00,VWS V14.00,2013-02-10 13:04:00,
2013-02-10 06:06:00,11.8,-0.8,0.00,WSW,251,0.0,0.0,56,0.00,,---,0.00,VWS V14.00,2013-02-10 13:06:00,
2013-02-10 06:07:00,11.7,-1.0,0.00,WSW,252,0.0,0.0,56,0.00,,---,0.00,VWS V14.00,2013-02-10 13:07:00,
2013-02-10 06:10:00,11.7,-1.0,0.00,WSW,257,0.0,0.0,56,0.00,,---,0.00,VWS V14.00,2013-02-10 13:10:00,
2013-02-10 06:11:00,11.7,-1.0,0.00,WSW,257,0.0,0.0,56,0.00,,---,0.00,VWS V14.00,2013-02-10 13:11:00,
2013-02-10 06:12:00,11.7,-1.0,0.00,WSW,257,0.0,0.0,56,0.00,,---,0.00,VWS V14.00,2013-02-10 13:12:00,
2013-02-10 06:13:00,11.7,-1.0,0.00,WSW,257,0.0,0.0,56,0.00,,---,0.00,VWS V14.00,2013-02-10 13:13:00,
2013-02-10 06:15:00,11.7,-1.0,0.00,WSW,257,0.0,0.0,56,0.00,,---,0.00,VWS V14.00,2013-02-10 13:15:00,
2013-02-10 06:16:00,11.7,-1.0,0.00,WSW,257,0.0,0.0,56,0.00,,---,0.00,VWS V14.00,2013-02-10 13:16:00,
2013-02-10 06:17:00,11.7,-1.0,0.00,WSW,257,0.0,0.0,56,0.00,,---,0.00,VWS V14.00,2013-02-10 13:17:00,
2013-02-10 06:18:00,11.7,-1.0,0.00,WSW,257,0.0,0.0,56,0.00,,---,0.00,VWS V14.00,2013-02-10 13:18:00,
2013-02-10 06:20:00,11.7,-1.0,0.00,WSW,257,0.0,0.0,56,0.00,,---,0.00,VWS V14.00,2013-02-10 13:20:00,
2013-02-10 06:21:00,11.7,-1.0,0.00,WSW,257,0.0,0.0,56,0.00,,---,0.00,VWS V14.00,2013-02-10 13:21:00,
2013-02-10 06:23:00,11.7,-1.0,0.00,WSW,257,0.0,0.0,56,0.00,,---,0.00,VWS V14.00,2013-02-10 13:23:00,
2013-02-10 06:25:00,11.7,-1.0,0.00,WSW,257,0.0,0.0,56,0.00,,---,0.00,VWS V14.00,2013-02-10 13:25:00,
2013-02-10 06:26:00,11.7,-1.0,0.00,WSW,257,0.0,0.0,56,0.00,,---,0.00,VWS V14.00,2013-02-10 13:26:00,
2013-02-10 06:28:00,11.7,-1.0,0.00,WSW,257,0.0,0.0,56,0.00,,---,0.00,VWS V14.00,2013-02-10 13:28:00,
2013-02-10 06:30:00,11.7,-1.0,0.00,WSW,257,0.0,0.0,56,0.00,,---,0.00,VWS V14.00,2013-02-10 13:30:00,
2013-02-10 06:31:00,11.7,-1.0,0.00,WSW,257,0.0,0.0,56,0.00,,---,0.00,VWS V14.00,2013-02-10 13:31:00,
2013-02-10 06:33:00,11.7,-1.0,0.00,WSW,257,0.0,0.0,56,0.00,,---,0.00,VWS V14.00,2013-02-10 13:33:00,
2013-02-10 06:35:00,11.7,-1.0,0.00,WSW,257,0.0,0.0,56,0.00,,---,0.00,VWS V14.00,2013-02-10 13:35:00,
2013-02-10 06:36:00,11.7,-1.0,0.00,WSW,257,0.0,0.0,56,0.00,,---,0.00,VWS V14.00,2013-02-10 13:36:00,
2013-02-10 06:38:00,11.7,-1.0,0.00,WSW,257,0.0,0.0,56,0.00,,---,0.00,VWS V14.00,2013-02-10 13:38:00,
2013-02-10 06:40:00,11.7,-1.0,0.00,WSW,247,0.0,0.0,56,0.00,,---,0.00,VWS V14.00,2013-02-10 13:40:00,
2013-02-10 06:41:00,11.7,-1.0,0.00,WSW,247,0.0,0.0,56,0.00,,---,0.00,VWS V14.00,2013-02-10 13:41:00,
2013-02-10 06:43:00,11.7,-1.0,0.00,WSW,247,0.0,0.0,56,0.00,,---,0.00,VWS V14.00,2013-02-10 13:43:00,
2013-02-10 06:45:00,11.7,-1.0,0.00,WSW,247,0.0,0.0,56,0.00,,---,0.00,VWS V14.00,2013-02-10 13:45:00,
2013-02-10 06:46:00,11.7,-1.0,0.00,WSW,247,0.0,0.0,56,0.00,,---,0.00,VWS V14.00,2013-02-10 13:46:00,
2013-02-10 06:48:00,11.7,-1.0,0.00,WSW,247,0.0,0.0,56,0.00,,---,0.00,VWS V14.00,2013-02-10 13:48:00,
2013-02-10 06:51:00,11.7,-1.0,0.00,WSW,247,0.0,0.0,56,0.00,,---,0.00,VWS V14.00,2013-02-10 13:51:00,
2013-02-10 06:53:00,11.7,-1.0,0.00,WSW,247,0.0,0.0,56,0.00,,---,0.00,VWS V14.00,2013-02-10 13:53:00,
2013-02-10 06:56:00,11.7,-1.0,0.00,WSW,241,0.0,0.0,56,0.00,,---,0.00,VWS V14.00,2013-02-10 13:56:00,
2013-02-10 06:58:00,11.7,-1.0,0.00,WSW,247,0.0,0.0,56,0.00,,---,0.00,VWS V14.00,2013-02-10 13:58:00,
2013-02-10 07:01:00,11.7,-1.0,0.00,WSW,247,0.0,0.0,56,0.00,,---,0.00,VWS V14.00,2013-02-10 14:01:00,
2013-02-10 07:04:00,11.7,-1.0,0.00,WSW,246,0.0,0.0,56,0.00,,---,0.00,VWS V14.00,2013-02-10 14:04:00,
2013-02-10 07:06:00,11.7,-1.0,0.00,WSW,247,0.0,0.0,56,0.00,,---,0.00,VWS V14.00,2013-02-10 14:06:00,
2013-02-10 07:09:00,11.7,-1.0,0.00,WSW,247,0.0,0.0,56,0.00,,---,0.00,VWS V14.00,2013-02-10 14:09:00,
2013-02-10 07:11:00,11.7,-1.0,0.00,WSW,247,0.0,0.0,56,0.00,,---,0.00,VWS V14.00,2013-02-10 14:11:00,
2013-02-10 07:12:00,11.7,-1.0,0.00,WSW,247,0.0,0.0,56,0.00,,---,0.00,VWS V14.00,2013-02-10 14:12:00,
2013-02-10 07:14:00,11.7,-1.0,0.00,WSW,247,0.0,0.0,56,0.00,,---,0.00,VWS V14.00,2013-02-10 14:14:00,
2013-02-10 07:16:00,11.7,-1.0,0.00,WSW,247,0.0,0.0,56,0.00,,---,0.00,VWS V14.00,2013-02-10 14:16:00,
2013-02-10 07:17:00,11.7,-1.0,0.00,WSW,241,0.0,0.0,56,0.00,,---,0.00,VWS V14.00,2013-02-10 14:17:00,
2013-02-10 07:19:00,11.7,-1.0,0.00,WSW,247,0.0,0.0,56,0.00,,---,0.00,VWS V14.00,2013-02-10 14:19:00,
2013-02-10 07:21:00,11.7,-1.0,0.00,WSW,246,0.0,0.0,56,0.00,,---,0.00,VWS V14.00,2013-02-10 14:21:00,
2013-02-10 07:22:00,11.7,-1.0,0.00,WSW,247,0.0,0.0,56,0.00,,---,0.00,VWS V14.00,2013-02-10 14:22:00,
2013-02-10 07:24:00,11.7,-1.0,0.00,WSW,247,0.0,0.0,56,0.00,,---,0.00,VWS V14.00,2013-02-10 14:24:00,
2013-02-10 07:25:00,11.7,-1.0,0.00,WSW,247,0.0,0.0,56,0.00,,---,0.00,VWS V14.00,2013-02-10 14:25:00,
2013-02-10 07:26:00,11.7,-1.0,0.00,WSW,247,0.0,0.0,56,0.00,,---,0.00,VWS V14.00,2013-02-10 14:26:00,
2013-02-10 07:27:00,11.7,-1.0,0.00,WSW,246,0.0,0.0,56,0.00,,---,0.00,VWS V14.00,2013-02-10 14:27:00,
2013-02-10 07:29:00,11.7,-1.0,0.00,WSW,241,0.0,0.0,56,0.00,,---,0.00,VWS V14.00,2013-02-10 14:29:00,
2013-02-10 07:30:00,11.7,-1.0,0.00,WSW,246,0.0,0.0,56,0.00,,---,0.00,VWS V14.00,2013-02-10 14:30:00,
2013-02-10 07:32:00,11.7,-1.0,0.00,WSW,241,0.0,0.0,56,0.00,,---,0.00,VWS V14.00,2013-02-10 14:32:00,
2013-02-10 07:33:00,11.7,-1.0,0.00,WSW,247,0.0,0.0,56,0.00,,---,0.00,VWS V14.00,2013-02-10 14:33:00,
2013-02-10 07:34:00,11.7,-1.0,0.00,WSW,247,0.0,0.0,56,0.00,,---,0.00,VWS V14.00,2013-02-10 14:34:00,
2013-02-10 07:35:00,11.7,-1.0,0.00,WSW,247,0.0,0.0,56,0.00,,---,0.00,VWS V14.00,2013-02-10 14:35:00,
2013-02-10 07:37:00,11.7,-1.0,0.00,WSW,247,0.0,0.0,56,0.00,,---,0.00,VWS V14.00,2013-02-10 14:37:00,
2013-02-10 07:38:00,11.7,-1.0,0.00,WSW,247,0.0,0.0,56,0.00,,---,0.00,VWS V14.00,2013-02-10 14:38:00,
2013-02-10 07:39:00,11.7,-1.0,0.00,WSW,247,0.0,0.0,56,0.00,,---,0.00,VWS V14.00,2013-02-10 14:39:00,
2013-02-10 07:40:00,11.7,-1.0,0.00,WSW,247,0.0,0.0,56,0.00,,---,0.00,VWS V14.00,2013-02-10 14:40:00,
2013-02-10 07:42:00,11.7,-1.0,0.00,WSW,247,0.0,0.0,56,0.00,,---,0.00,VWS V14.00,2013-02-10 14:42:00,
2013-02-10 07:43:00,11.7,-1.0,0.00,WSW,247,0.0,0.0,56,0.00,,---,0.00,VWS V14.00,2013-02-10 14:43:00,
2013-02-10 07:44:00,11.7,-1.0,0.00,WSW,247,0.0,0.0,56,0.00,,---,0.00,VWS V14.00,2013-02-10 14:44:00,
2013-02-10 07:45:00,11.7,-1.0,0.00,WSW,241,0.0,0.0,56,0.00,,---,0.00,VWS V14.00,2013-02-10 14:45:00,
2013-02-10 07:47:00,11.7,-1.0,0.00,WSW,247,0.0,0.0,56,0.00,,---,0.00,VWS V14.00,2013-02-10 14:47:00,
2013-02-10 07:48:00,11.7,-1.0,0.00,WSW,247,0.0,0.0,56,0.00,,---,0.00,VWS V14.00,2013-02-10 14:48:00,
2013-02-10 07:49:00,11.7,-1.0,0.00,WSW,247,0.0,0.0,56,0.00,,---,0.00,VWS V14.00,2013-02-10 14:49:00,
2013-02-10 07:50:00,11.7,-1.0,0.00,WSW,246,0.0,0.0,56,0.00,,---,0.00,VWS V14.00,2013-02-10 14:50:00,
2013-02-10 07:52:00,11.7,-1.0,0.00,WSW,247,0.0,0.0,56,0.00,,---,0.00,VWS V14.00,2013-02-10 14:52:00,
2013-02-10 07:53:00,11.7,-1.0,0.00,WSW,247,0.0,0.0,56,0.00,,---,0.00,VWS V14.00,2013-02-10 14:53:00,
2013-02-10 07:54:00,11.7,-1.0,0.00,WSW,247,0.0,0.0,56,0.00,,---,0.00,VWS V14.00,2013-02-10 14:54:00,
2013-02-10 07:55:00,11.8,-0.8,0.00,WSW,246,0.0,0.0,56,0.00,,---,0.00,VWS V14.00,2013-02-10 14:55:00,
2013-02-10 07:57:00,11.8,-0.8,0.00,WSW,247,0.0,0.0,56,0.00,,---,0.00,VWS V14.00,2013-02-10 14:57:00,
2013-02-10 07:58:00,11.8,-0.8,0.00,WSW,247,0.0,0.0,56,0.00,,---,0.00,VWS V14.00,2013-02-10 14:58:00,
2013-02-10 08:00:00,11.8,-0.8,0.00,WSW,238,0.0,0.0,56,0.00,,---,0.00,VWS V14.00,2013-02-10 15:00:00,
2013-02-10 08:02:00,11.8,-0.8,0.00,WSW,247,0.0,0.0,56,0.00,,---,0.00,VWS V14.00,2013-02-10 15:02:00,
2013-02-10 08:03:00,11.8,-0.8,0.00,WSW,247,0.0,0.0,56,0.00,,---,0.00,VWS V14.00,2013-02-10 15:03:00,
2013-02-10 08:05:00,11.8,-0.8,0.00,WSW,247,0.0,0.0,56,0.00,,---,0.00,VWS V14.00,2013-02-10 15:05:00,
2013-02-10 08:07:00,11.8,-0.8,0.00,WSW,247,0.0,0.0,56,0.00,,---,0.00,VWS V14.00,2013-02-10 15:07:00,
2013-02-10 08:08:00,11.8,-0.8,0.00,WSW,247,0.0,0.0,56,0.00,,---,0.00,VWS V14.00,2013-02-10 15:08:00,
2013-02-10 08:10:00,11.8,-0.8,0.00,WSW,247,0.0,0.0,56,0.00,,---,0.00,VWS V14.00,2013-02-10 15:10:00,
2013-02-10 08:13:00,11.8,-0.8,0.00,WSW,247,0.0,0.0,56,0.00,,---,0.00,VWS V14.00,2013-02-10 15:13:00,
2013-02-10 08:15:00,12.0,-0.6,0.00,WSW,247,0.0,0.0,56,0.00,,---,0.00,VWS V14.00,2013-02-10 15:15:00,
2013-02-10 08:18:00,12.0,-0.6,0.00,WSW,247,0.0,0.0,56,0.00,,---,0.00,VWS V14.00,2013-02-10 15:18:00,
2013-02-10 08:20:00,12.0,-0.6,0.00,WSW,247,0.0,0.0,56,0.00,,---,0.00,VWS V14.00,2013-02-10 15:20:00,
2013-02-10 08:21:00,12.0,-0.6,0.00,WSW,247,0.0,0.0,56,0.00,,---,0.00,VWS V14.00,2013-02-10 15:21:00,
2013-02-10 08:23:00,12.0,-0.6,0.00,WSW,247,0.0,0.0,56,0.00,,---,0.00,VWS V14.00,2013-02-10 15:23:00,
2013-02-10 08:24:00,12.0,-0.6,0.00,WSW,247,0.0,0.0,56,0.00,,---,0.00,VWS V14.00,2013-02-10 15:24:00,
2013-02-10 08:25:00,12.0,-0.6,0.00,WSW,247,0.0,0.0,56,0.00,,---,0.00,VWS V14.00,2013-02-10 15:25:00,
2013-02-10 08:26:00,12.0,-0.6,0.00,WSW,247,0.0,0.0,56,0.00,,---,0.00,VWS V14.00,2013-02-10 15:26:00,
2013-02-10 08:28:00,12.2,-0.5,0.00,WSW,247,0.0,0.0,56,0.00,,---,0.00,VWS V14.00,2013-02-10 15:28:00,
2013-02-10 08:29:00,12.2,-0.5,0.00,WSW,247,0.0,0.0,56,0.00,,---,0.00,VWS V14.00,2013-02-10 15:29:00,
2013-02-10 08:30:00,12.2,-0.5,0.00,WSW,247,0.0,0.0,56,0.00,,---,0.00,VWS V14.00,2013-02-10 15:30:00,
2013-02-10 08:31:00,12.2,-0.5,0.00,WSW,248,0.0,0.0,56,0.00,,---,0.00,VWS V14.00,2013-02-10 15:31:00,
2013-02-10 08:33:00,12.2,-0.5,0.00,WSW,248,0.0,0.0,56,0.00,,---,0.00,VWS V14.00,2013-02-10 15:33:00,
2013-02-10 08:34:00,12.2,-0.5,0.00,WSW,247,0.0,0.0,56,0.00,,---,0.00,VWS V14.00,2013-02-10 15:34:00,
2013-02-10 08:35:00,12.4,-0.3,0.00,WSW,247,0.0,0.0,56,0.00,,---,0.00,VWS V14.00,2013-02-10 15:35:00,
2013-02-10 08:36:00,12.4,-0.3,0.00,WSW,247,0.0,0.0,56,0.00,,---,0.00,VWS V14.00,2013-02-10 15:36:00,
2013-02-10 08:38:00,12.4,-0.3,0.00,WSW,247,0.0,0.0,56,0.00,,---,0.00,VWS V14.00,2013-02-10 15:38:00,
2013-02-10 08:39:00,12.6,-0.2,0.00,WSW,247,0.0,0.0,56,0.00,,---,0.00,VWS V14.00,2013-02-10 15:39:00,
2013-02-10 08:40:00,12.6,-0.2,0.00,WSW,247,0.0,0.0,56,0.00,,---,0.00,VWS V14.00,2013-02-10 15:40:00,
2013-02-10 08:41:00,12.6,-0.2,0.00,WSW,241,0.0,0.0,56,0.00,,---,0.00,VWS V14.00,2013-02-10 15:41:00,
2013-02-10 08:43:00,12.6,-0.2,0.00,WSW,247,0.0,0.0,56,0.00,,---,0.00,VWS V14.00,2013-02-10 15:43:00,
2013-02-10 08:44:00,12.6,-0.2,0.00,WSW,247,0.0,0.0,56,0.00,,---,0.00,VWS V14.00,2013-02-10 15:44:00,
2013-02-10 08:45:00,12.6,-0.2,0.00,WSW,247,0.0,0.0,56,0.00,,---,0.00,VWS V14.00,2013-02-10 15:45:00,
2013-02-10 08:46:00,12.7,0.0,0.00,WSW,241,0.0,0.0,56,0.00,,---,0.00,VWS V14.00,2013-02-10 15:46:00,
2013-02-10 08:48:00,12.7,0.0,0.00,WSW,247,0.0,0.0,56,0.00,,---,0.00,VWS V14.00,2013-02-10 15:48:00,
2013-02-10 08:49:00,12.7,0.0,0.00,WSW,247,0.0,0.0,56,0.00,,---,0.00,VWS V14.00,2013-02-10 15:49:00,
2013-02-10 08:51:00,12.7,0.0,0.00,South,177,3.1,3.1,56,0.00,,---,0.00,VWS V14.00,2013-02-10 15:51:00,
2013-02-10 08:54:00,12.9,0.2,0.00,SE,124,2.2,2.2,56,0.00,,---,0.00,VWS V14.00,2013-02-10 15:54:00,
2013-02-10 08:56:00,13.1,0.4,0.00,SE,124,0.0,0.0,56,0.00,,---,0.00,VWS V14.00,2013-02-10 15:56:00,
2013-02-10 08:59:00,13.3,0.5,0.00,SE,124,0.0,0.0,56,0.00,,---,0.00,VWS V14.00,2013-02-10 15:59:00,
2013-02-10 09:00:00,13.3,0.5,0.00,ESE,123,0.0,0.0,56,0.00,,---,0.00,VWS V14.00,2013-02-10 16:00:00,
2013-02-10 09:01:00,13.3,0.5,0.00,SE,124,0.0,0.0,56,0.00,,---,0.00,VWS V14.00,2013-02-10 16:01:00,
2013-02-10 09:04:00,13.5,0.7,0.00,SE,125,0.0,0.0,56,0.00,,---,0.00,VWS V14.00,2013-02-10 16:04:00,
2013-02-10 09:05:00,13.5,0.7,0.00,SE,129,0.0,0.0,56,0.00,,---,0.00,VWS V14.00,2013-02-10 16:05:00,
2013-02-10 09:06:00,13.5,0.7,0.00,SE,126,0.0,0.0,56,0.00,,---,0.00,VWS V14.00,2013-02-10 16:06:00,
2013-02-10 09:09:00,13.6,0.9,0.00,SE,138,0.0,0.0,56,0.00,,---,0.00,VWS V14.00,2013-02-10 16:09:00,
2013-02-10 09:10:00,13.6,0.9,0.00,SE,138,0.0,0.0,56,0.00,,---,0.00,VWS V14.00,2013-02-10 16:10:00,
2013-02-10 09:11:00,13.8,1.0,0.00,SE,138,0.0,0.0,56,0.00,,---,0.00,VWS V14.00,2013-02-10 16:11:00,
2013-02-10 09:14:00,14.0,0.0,0.00,ESE,115,0.0,3.1,53,0.00,,---,0.00,VWS V14.00,2013-02-10 16:14:00,
2013-02-10 09:15:00,14.0,0.4,0.00,ESE,115,0.0,0.0,54,0.00,,---,0.00,VWS V14.00,2013-02-10 16:15:00,
2013-02-10 09:16:00,14.2,0.2,0.00,ESE,116,0.0,0.0,53,0.00,,---,0.00,VWS V14.00,2013-02-10 16:16:00,
2013-02-10 09:19:00,14.4,0.8,0.00,ESE,116,0.0,2.2,54,0.00,,---,0.00,VWS V14.00,2013-02-10 16:19:00,
2013-02-10 09:20:00,14.4,0.8,0.00,SW,227,0.0,0.0,54,0.00,,---,0.00,VWS V14.00,2013-02-10 16:20:00,
2013-02-10 09:21:00,14.4,0.8,0.00,SW,224,0.0,0.0,54,0.00,,---,0.00,VWS V14.00,2013-02-10 16:21:00,
2013-02-10 09:24:00,14.5,0.9,0.00,ESE,109,0.0,2.7,54,0.00,,---,0.00,VWS V14.00,2013-02-10 16:24:00,
2013-02-10 09:25:00,14.7,1.1,0.00,ESE,116,0.0,0.0,54,0.00,,---,0.00,VWS V14.00,2013-02-10 16:25:00,
2013-02-10 09:26:00,14.7,1.5,0.00,WSW,257,2.2,2.2,55,0.00,,---,0.00,VWS V14.00,2013-02-10 16:26:00,
2013-02-10 09:29:00,14.9,1.7,0.00,SW,222,0.0,0.0,55,0.00,,---,0.00,VWS V14.00,2013-02-10 16:29:00,
2013-02-10 09:30:00,15.1,1.8,0.00,West,262,0.0,0.0,55,0.00,,---,0.00,VWS V14.00,2013-02-10 16:30:00,
2013-02-10 09:31:00,15.1,1.8,0.00,West,260,0.0,0.0,55,0.00,,---,0.00,VWS V14.00,2013-02-10 16:31:00,
2013-02-10 09:32:00,15.1,1.8,0.00,West,260,0.0,0.0,55,0.00,,---,0.00,VWS V14.00,2013-02-10 16:32:00,
2013-02-10 09:34:00,15.3,2.0,0.00,South,183,0.0,0.0,55,0.00,,---,0.00,VWS V14.00,2013-02-10 16:34:00,
2013-02-10 09:35:00,15.4,2.2,0.00,WSW,245,3.6,3.6,55,0.00,,---,0.00,VWS V14.00,2013-02-10 16:35:00,
2013-02-10 09:36:00,15.4,2.2,0.00,WSW,245,0.0,0.0,55,0.00,,---,0.00,VWS V14.00,2013-02-10 16:36:00,
2013-02-10 09:37:00,15.4,2.2,0.00,SW,219,0.0,0.0,55,0.00,,---,0.00,VWS V14.00,2013-02-10 16:37:00,
2013-02-10 09:39:00,15.8,2.5,0.00,SW,235,0.0,0.0,55,0.00,,---,0.00,VWS V14.00,2013-02-10 16:39:00,
2013-02-10 09:40:00,15.8,2.5,0.00,SW,235,0.0,0.0,55,0.00,,---,0.00,VWS V14.00,2013-02-10 16:40:00,
2013-02-10 09:41:00,16.0,2.7,0.00,South,181,0.0,0.0,55,0.00,,---,0.00,VWS V14.00,2013-02-10 16:41:00,
2013-02-10 09:42:00,16.0,2.7,0.00,South,181,0.0,0.0,55,0.00,,---,0.00,VWS V14.00,2013-02-10 16:42:00,
2013-02-10 09:44:00,16.2,2.8,0.00,SE,134,2.2,3.1,55,0.00,,---,0.00,VWS V14.00,2013-02-10 16:44:00,
2013-02-10 09:45:00,16.2,2.8,0.00,ESE,108,2.7,2.7,55,0.00,,---,0.00,VWS V14.00,2013-02-10 16:45:00,
2013-02-10 09:46:00,16.3,3.0,0.00,ESE,110,0.0,0.0,55,0.00,,---,0.00,VWS V14.00,2013-02-10 16:46:00,
2013-02-10 09:47:00,16.5,3.2,0.00,SE,125,0.0,0.0,55,0.00,,---,0.00,VWS V14.00,2013-02-10 16:47:00,
2013-02-10 09:49:00,16.7,3.3,0.00,SSE,150,0.0,0.0,55,0.00,,---,0.00,VWS V14.00,2013-02-10 16:49:00,
2013-02-10 09:50:00,16.7,3.3,0.00,SSE,150,0.0,0.0,55,0.00,,---,0.00,VWS V14.00,2013-02-10 16:50:00,
2013-02-10 09:51:00,16.7,3.3,0.00,ESE,118,3.6,3.6,55,0.00,,---,0.00,VWS V14.00,2013-02-10 16:51:00,
2013-02-10 09:52:00,16.7,3.3,0.00,SW,231,0.0,0.0,55,0.00,,---,0.00,VWS V14.00,2013-02-10 16:52:00,
2013-02-10 09:54:00,17.1,3.7,0.00,WSW,243,0.0,4.0,55,0.00,,---,0.00,VWS V14.00,2013-02-10 16:54:00,
2013-02-10 09:55:00,17.1,3.7,0.00,WSW,243,0.0,0.0,55,0.00,,---,0.00,VWS V14.00,2013-02-10 16:55:00,
2013-02-10 09:56:00,17.1,3.7,0.00,WSW,254,0.0,2.7,55,0.00,,---,0.00,VWS V14.00,2013-02-10 16:56:00,
2013-02-10 09:57:00,17.2,3.9,0.00,South,187,0.0,0.0,55,0.00,,---,0.00,VWS V14.00,2013-02-10 16:57:00,
2013-02-10 10:00:00,17.4,4.0,0.00,ESE,109,2.2,2.2,55,0.00,,---,0.00,VWS V14.00,2013-02-10 17:00:00,
2013-02-10 10:01:00,17.6,4.2,0.00,ESE,118,2.2,3.1,55,0.00,,---,0.00,VWS V14.00,2013-02-10 17:01:00,
2013-02-10 10:02:00,17.6,4.2,0.00,SE,126,0.0,0.0,55,0.00,,---,0.00,VWS V14.00,2013-02-10 17:02:00,
2013-02-10 10:05:00,17.8,4.0,0.00,ESE,116,4.0,4.0,54,0.00,,---,0.00,VWS V14.00,2013-02-10 17:05:00,
2013-02-10 10:06:00,18.0,4.1,0.00,SSE,163,0.0,0.0,54,0.00,,---,0.00,VWS V14.00,2013-02-10 17:06:00,
2013-02-10 10:07:00,18.0,4.1,0.00,SW,217,0.0,0.0,54,0.00,,---,0.00,VWS V14.00,2013-02-10 17:07:00,
2013-02-10 10:10:00,18.1,4.3,0.00,SE,145,0.0,0.0,54,0.00,,---,0.00,VWS V14.00,2013-02-10 17:10:00,
2013-02-10 10:12:00,18.3,4.5,0.00,SW,227,0.0,0.0,54,0.00,,---,0.00,VWS V14.00,2013-02-10 17:12:00,
2013-02-10 10:15:00,18.3,4.5,0.00,SW,230,0.0,0.0,54,0.00,,---,0.00,VWS V14.00,2013-02-10 17:15:00,
2013-02-10 10:17:00,18.5,4.6,0.00,South,176,2.2,3.1,54,0.00,,---,0.00,VWS V14.00,2013-02-10 17:17:00,
2013-02-10 10:20:00,18.7,4.8,0.00,West,279,3.6,3.6,54,0.00,,---,0.00,VWS V14.00,2013-02-10 17:20:00,
2013-02-10 10:22:00,18.7,4.4,0.00,West,276,3.1,3.1,53,0.00,,---,0.00,VWS V14.00,2013-02-10 17:22:00,
2013-02-10 10:25:00,18.7,4.4,0.00,SSW,204,0.0,0.0,53,0.00,,---,0.00,VWS V14.00,2013-02-10 17:25:00,
2013-02-10 10:26:00,18.9,4.6,0.00,WNW,299,0.0,0.0,53,0.00,,---,0.00,VWS V14.00,2013-02-10 17:26:00,
2013-02-10 10:27:00,18.9,4.6,0.00,SSE,168,2.7,2.7,53,0.00,,---,0.00,VWS V14.00,2013-02-10 17:27:00,
2013-02-10 10:30:00,19.0,4.7,0.00,SSW,208,0.0,0.0,53,0.00,,---,0.00,VWS V14.00,2013-02-10 17:30:00,
2013-02-10 10:31:00,19.0,4.7,0.00,SE,138,2.7,2.7,53,0.00,,---,0.00,VWS V14.00,2013-02-10 17:31:00,
2013-02-10 10:32:00,19.0,4.7,0.00,SE,145,0.0,2.7,53,0.00,,---,0.00,VWS V14.00,2013-02-10 17:32:00,
2013-02-10 10:35:00,19.2,4.9,0.00,SW,234,0.0,2.2,53,0.00,,---,0.00,VWS V14.00,2013-02-10 17:35:00,
2013-02-10 10:36:00,19.2,5.3,0.00,WSW,246,0.0,3.1,54,0.00,,---,0.00,VWS V14.00,2013-02-10 17:36:00,
2013-02-10 10:37:00,19.2,5.3,0.00,SW,221,0.0,0.0,54,0.00,,---,0.00,VWS V14.00,2013-02-10 17:37:00,
2013-02-10 10:40:00,19.2,5.3,0.00,SW,233,0.0,0.0,54,0.00,,---,0.00,VWS V14.00,2013-02-10 17:40:00,
2013-02-10 10:41:00,19.4,5.5,0.00,ESE,123,3.6,4.5,54,0.00,,---,0.00,VWS V14.00,2013-02-10 17:41:00,
2013-02-10 10:42:00,19.4,5.5,0.00,SE,141,2.7,3.1,54,0.00,,---,0.00,VWS V14.00,2013-02-10 17:42:00,
2013-02-10 10:43:00,19.4,5.5,0.00,SE,141,2.7,3.1,54,0.00,,---,0.00,VWS V14.00,2013-02-10 17:43:00,
2013-02-10 10:45:00,19.4,5.5,0.00,West,268,2.2,2.2,54,0.00,,---,0.00,VWS V14.00,2013-02-10 17:45:00,
2013-02-10 10:46:00,19.4,5.5,0.00,West,268,0.0,2.2,54,0.00,,---,0.00,VWS V14.00,2013-02-10 17:46:00,
2013-02-10 10:47:00,19.4,5.5,0.00,SSE,153,3.1,3.1,54,0.00,,---,0.00,VWS V14.00,2013-02-10 17:47:00,
2013-02-10 10:48:00,19.4,5.5,0.00,SSE,152,2.2,3.1,54,0.00,,---,0.00,VWS V14.00,2013-02-10 17:48:00,
2013-02-10 10:50:00,19.4,5.5,0.00,SSW,213,0.0,0.0,54,0.00,,---,0.00,VWS V14.00,2013-02-10 17:50:00,
2013-02-10 10:51:00,19.6,5.7,0.00,South,170,3.1,3.1,54,0.00,,---,0.00,VWS V14.00,2013-02-10 17:51:00,
2013-02-10 10:53:00,19.6,5.7,0.00,ESE,117,4.0,4.0,54,0.00,,---,0.00,VWS V14.00,2013-02-10 17:53:00,
2013-02-10 10:55:00,19.6,5.7,0.00,WSW,240,2.2,2.2,54,0.00,,---,0.00,VWS V14.00,2013-02-10 17:55:00,
2013-02-10 10:56:00,19.6,5.7,0.00,SE,130,3.1,4.0,54,0.00,,---,0.00,VWS V14.00,2013-02-10 17:56:00,
2013-02-10 10:58:00,19.6,5.7,0.00,SSW,200,0.0,0.0,54,0.00,,---,0.00,VWS V14.00,2013-02-10 17:58:00,
2013-02-10 11:00:00,19.6,5.7,0.00,South,179,0.0,0.0,54,0.00,,---,0.00,VWS V14.00,2013-02-10 18:00:00,
2013-02-10 11:01:00,19.8,5.8,0.00,SW,218,0.0,2.2,54,0.00,,---,0.00,VWS V14.00,2013-02-10 18:01:00,
2013-02-10 11:03:00,19.8,5.8,0.00,SSE,161,0.0,0.0,54,0.00,,---,0.00,VWS V14.00,2013-02-10 18:03:00,
2013-02-10 11:06:00,19.8,6.2,0.00,South,190,0.0,0.0,55,0.00,,---,0.00,VWS V14.00,2013-02-10 18:06:00,
2013-02-10 11:08:00,19.8,6.2,0.00,SSW,206,0.0,0.0,55,0.00,,---,0.00,VWS V14.00,2013-02-10 18:08:00,
2013-02-10 11:09:00,19.8,6.2,0.00,SSW,206,0.0,0.0,55,0.00,,---,0.00,VWS V14.00,2013-02-10 18:09:00,
2013-02-10 11:11:00,19.8,6.2,0.00,South,171,0.0,0.0,55,0.00,,---,0.00,VWS V14.00,2013-02-10 18:11:00,
2013-02-10 11:13:00,19.9,6.8,0.00,SSE,155,0.0,3.1,56,0.00,,---,0.00,VWS V14.00,2013-02-10 18:13:00,
2013-02-10 11:14:00,19.9,6.8,0.00,SSE,155,0.0,3.1,56,0.00,,---,0.00,VWS V14.00,2013-02-10 18:14:00,
2013-02-10 11:16:00,19.9,6.8,0.00,WSW,240,0.0,0.0,56,0.00,,---,0.00,VWS V14.00,2013-02-10 18:16:00,
2013-02-10 11:18:00,20.1,6.9,0.00,SE,146,2.2,2.2,56,0.00,,---,0.00,VWS V14.00,2013-02-10 18:18:00,
2013-02-10 11:19:00,20.1,6.9,0.00,SE,126,2.7,4.0,56,0.00,,---,0.00,VWS V14.00,2013-02-10 18:19:00,
2013-02-10 11:21:00,20.1,6.9,0.00,SE,127,4.0,4.0,56,0.00,,---,0.00,VWS V14.00,2013-02-10 18:21:00,
2013-02-10 11:23:00,20.3,7.5,0.00,ESE,103,0.0,0.0,57,0.00,,---,0.00,VWS V14.00,2013-02-10 18:23:00,
2013-02-10 11:24:00,20.3,7.5,0.00,ESE,108,0.0,3.1,57,0.00,,---,0.00,VWS V14.00,2013-02-10 18:24:00,
2013-02-10 11:26:00,20.3,7.5,0.00,ESE,123,3.1,3.1,57,0.00,,---,0.00,VWS V14.00,2013-02-10 18:26:00,
2013-02-10 11:28:00,20.5,7.7,0.00,SW,224,0.0,0.0,57,0.00,,---,0.00,VWS V14.00,2013-02-10 18:28:00,
2013-02-10 11:29:00,20.5,7.7,0.00,SW,224,0.0,0.0,57,0.00,,---,0.00,VWS V14.00,2013-02-10 18:29:00,
2013-02-10 11:31:00,20.7,7.8,0.00,SW,227,0.0,0.0,57,0.00,,---,0.00,VWS V14.00,2013-02-10 18:31:00,
2013-02-10 11:34:00,20.7,7.8,0.00,SSE,161,0.0,0.0,57,0.00,,---,0.00,VWS V14.00,2013-02-10 18:34:00,
2013-02-10 11:36:00,20.8,7.6,0.00,South,185,0.0,0.0,56,0.00,,---,0.00,VWS V14.00,2013-02-10 18:36:00,
2013-02-10 11:37:00,20.8,7.6,0.00,ESE,113,2.7,3.6,56,0.00,,---,0.00,VWS V14.00,2013-02-10 18:37:00,
2013-02-10 11:39:00,21.0,7.8,0.00,ESE,118,3.1,3.1,56,0.00,,---,0.00,VWS V14.00,2013-02-10 18:39:00,
2013-02-10 11:41:00,21.2,8.0,0.00,SE,131,2.2,2.2,56,0.00,,---,0.00,VWS V14.00,2013-02-10 18:41:00,
2013-02-10 11:42:00,21.2,8.0,0.00,West,271,0.0,2.7,56,0.00,,---,0.00,VWS V14.00,2013-02-10 18:42:00,
2013-02-10 11:44:00,21.2,8.0,0.00,WSW,243,0.0,0.0,56,0.00,,---,0.00,VWS V14.00,2013-02-10 18:44:00,
2013-02-10 11:46:00,21.2,8.0,0.00,WNW,297,0.0,0.0,56,0.00,,---,0.00,VWS V14.00,2013-02-10 18:46:00,
2013-02-10 11:47:00,21.2,8.0,0.00,WNW,292,0.0,0.0,56,0.00,,---,0.00,VWS V14.00,2013-02-10 18:47:00,
2013-02-10 11:49:00,21.4,8.1,0.00,WSW,237,0.0,0.0,56,0.00,,---,0.00,VWS V14.00,2013-02-10 18:49:00,
2013-02-10 11:51:00,21.6,8.3,0.00,WSW,258,2.7,2.7,56,0.00,,---,0.00,VWS V14.00,2013-02-10 18:51:00,
2013-02-10 11:52:00,21.6,8.3,0.00,SSW,206,0.0,2.7,56,0.00,,---,0.00,VWS V14.00,2013-02-10 18:52:00,
2013-02-10 11:54:00,21.6,8.7,0.00,SW,227,0.0,0.0,57,0.00,,---,0.00,VWS V14.00,2013-02-10 18:54:00,
2013-02-10 11:55:00,21.7,8.9,0.00,SW,228,0.0,0.0,57,0.00,,---,0.00,VWS V14.00,2013-02-10 18:55:00,
2013-02-10 11:57:00,21.7,8.9,0.00,SSE,158,0.0,0.0,57,0.00,,---,0.00,VWS V14.00,2013-02-10 18:57:00,
2013-02-10 11:59:00,21.9,9.0,0.00,SSW,194,0.0,3.1,57,0.00,,---,0.00,VWS V14.00,2013-02-10 18:59:00,
2013-02-10 12:00:00,21.9,9.0,0.00,SSW,200,0.0,3.1,57,0.00,,---,0.00,VWS V14.00,2013-02-10 19:00:00,
2013-02-10 12:02:00,21.9,8.6,0.00,SE,146,3.1,3.1,56,0.00,,---,0.00,VWS V14.00,2013-02-10 19:02:00,
2013-02-10 12:04:00,22.1,9.2,0.00,WSW,244,3.1,3.6,57,0.00,,---,0.00,VWS V14.00,2013-02-10 19:04:00,
2013-02-10 12:05:00,22.1,9.2,0.00,SW,236,2.2,3.6,57,0.00,,---,0.00,VWS V14.00,2013-02-10 19:05:00,
2013-02-10 12:07:00,22.3,9.4,0.00,SE,145,4.0,4.0,57,0.00,,---,0.00,VWS V14.00,2013-02-10 19:07:00,
2013-02-10 12:09:00,22.5,9.9,0.00,South,175,0.0,2.7,58,0.00,,---,0.00,VWS V14.00,2013-02-10 19:09:00,
2013-02-10 12:10:00,22.5,9.9,0.00,SE,139,2.7,2.7,58,0.00,,---,0.00,VWS V14.00,2013-02-10 19:10:00,
2013-02-10 12:12:00,22.6,10.1,0.00,ESE,105,0.0,4.0,58,0.00,,---,0.00,VWS V14.00,2013-02-10 19:12:00,
2013-02-10 12:15:00,22.8,10.3,0.00,SE,126,2.7,3.1,58,0.00,,---,0.00,VWS V14.00,2013-02-10 19:15:00,
2013-02-10 12:17:00,22.8,10.3,0.00,SW,225,0.0,0.0,58,0.00,,---,0.00,VWS V14.00,2013-02-10 19:17:00,
2013-02-10 12:20:00,22.8,9.9,0.00,SE,145,0.0,0.0,57,0.00,,---,0.00,VWS V14.00,2013-02-10 19:20:00,
2013-02-10 12:21:00,22.8,9.9,0.00,SE,146,0.0,0.0,57,0.00,,---,0.00,VWS V14.00,2013-02-10 19:21:00,
2013-02-10 12:22:00,22.8,9.9,0.00,West,263,0.0,0.0,57,0.00,,---,0.00,VWS V14.00,2013-02-10 19:22:00,
2013-02-10 12:25:00,22.8,9.5,0.00,WSW,247,2.7,2.7,56,0.00,,---,0.00,VWS V14.00,2013-02-10 19:25:00,
2013-02-10 12:26:00,22.8,9.5,0.00,WNW,295,2.7,3.1,56,0.00,,---,0.00,VWS V14.00,2013-02-10 19:26:00,
2013-02-10 12:27:00,22.8,9.5,0.00,West,265,0.0,0.0,56,0.00,,---,0.00,VWS V14.00,2013-02-10 19:27:00,
2013-02-10 12:31:00,22.8,9.1,0.00,West,264,0.0,0.0,55,0.00,,---,0.00,VWS V14.00,2013-02-10 19:31:00,
2013-02-10 12:32:00,22.8,9.1,0.00,West,265,0.0,0.0,55,0.00,,---,0.00,VWS V14.00,2013-02-10 19:32:00,
2013-02-10 12:36:00,22.6,8.9,0.00,WSW,245,0.0,2.7,55,0.00,,---,0.00,VWS V14.00,2013-02-10 19:36:00,
2013-02-10 12:37:00,22.6,8.9,0.00,WSW,237,0.0,2.7,55,0.00,,---,0.00,VWS V14.00,2013-02-10 19:37:00,
2013-02-10 12:38:00,22.6,8.9,0.00,WSW,237,0.0,2.7,55,0.00,,---,0.00,VWS V14.00,2013-02-10 19:38:00,
2013-02-10 12:41:00,22.5,8.8,0.00,West,265,0.0,2.2,55,0.00,,---,0.00,VWS V14.00,2013-02-10 19:41:00,
2013-02-10 12:42:00,22.3,8.6,0.00,WSW,246,0.0,0.0,55,0.00,,---,0.00,VWS V14.00,2013-02-10 19:42:00,
2013-02-10 12:43:00,22.3,8.6,0.00,WSW,246,0.0,0.0,55,0.00,,---,0.00,VWS V14.00,2013-02-10 19:43:00,
2013-02-10 12:46:00,22.1,8.0,0.00,WNW,284,2.2,2.7,54,0.00,,---,0.00,VWS V14.00,2013-02-10 19:46:00,
2013-02-10 12:47:00,21.9,7.8,0.00,West,275,0.0,0.0,54,0.00,,---,0.00,VWS V14.00,2013-02-10 19:47:00,
2013-02-10 12:48:00,21.9,7.8,0.00,West,275,0.0,0.0,54,0.00,,---,0.00,VWS V14.00,2013-02-10 19:48:00,
2013-02-10 12:51:00,21.9,7.8,0.00,WNW,289,0.0,2.7,54,0.00,,---,0.00,VWS V14.00,2013-02-10 19:51:00,
2013-02-10 12:52:00,21.9,7.8,0.00,NW,311,0.0,0.0,54,0.00,,---,0.00,VWS V14.00,2013-02-10 19:52:00,
2013-02-10 12:53:00,21.7,7.7,0.00,NW,309,0.0,0.0,54,0.00,,---,0.00,VWS V14.00,2013-02-10 19:53:00,
2013-02-10 12:56:00,21.7,7.7,0.00,NW,309,0.0,0.0,54,0.00,,---,0.00,VWS V14.00,2013-02-10 19:56:00,
2013-02-10 12:58:00,21.6,7.5,0.00,WNW,303,0.0,0.0,54,0.00,,---,0.00,VWS V14.00,2013-02-10 19:58:00,
2013-02-10 13:01:00,21.4,6.9,0.00,WNW,293,0.0,0.0,53,0.00,,---,0.00,VWS V14.00,2013-02-10 20:01:00,
2013-02-10 13:03:00,21.4,6.9,0.00,WNW,291,0.0,0.0,53,0.00,,---,0.00,VWS V14.00,2013-02-10 20:03:00,
2013-02-10 13:06:00,21.4,6.9,0.00,WNW,289,0.0,0.0,53,0.00,,---,0.00,VWS V14.00,2013-02-10 20:06:00,
2013-02-10 13:08:00,21.2,7.2,0.00,WNW,289,0.0,0.0,54,0.00,,---,0.00,VWS V14.00,2013-02-10 20:08:00,
2013-02-10 13:11:00,21.2,6.8,0.00,West,270,0.0,0.0,53,0.00,,---,0.00,VWS V14.00,2013-02-10 20:11:00,
2013-02-10 13:13:00,21.2,6.8,0.00,West,270,0.0,0.0,53,0.00,,---,0.00,VWS V14.00,2013-02-10 20:13:00,
2013-02-10 13:16:00,21.2,6.8,0.00,West,278,0.0,0.0,53,0.00,,---,0.00,VWS V14.00,2013-02-10 20:16:00,
2013-02-10 13:18:00,21.0,7.0,0.00,WSW,242,2.2,3.1,54,0.00,,---,0.00,VWS V14.00,2013-02-10 20:18:00,
2013-02-10 13:19:00,21.0,7.0,0.00,South,181,0.0,2.2,54,0.00,,---,0.00,VWS V14.00,2013-02-10 20:19:00,
2013-02-10 13:21:00,21.0,7.0,0.00,South,177,0.0,0.0,54,0.00,,---,0.00,VWS V14.00,2013-02-10 20:21:00,
2013-02-10 13:23:00,20.8,6.8,0.00,SSE,156,0.0,0.0,54,0.00,,---,0.00,VWS V14.00,2013-02-10 20:23:00,
2013-02-10 13:24:00,20.8,6.8,0.00,SSE,156,0.0,0.0,54,0.00,,---,0.00,VWS V14.00,2013-02-10 20:24:00,
2013-02-10 13:26:00,20.8,7.2,0.00,SSE,154,0.0,0.0,55,0.00,,---,0.00,VWS V14.00,2013-02-10 20:26:00,
2013-02-10 13:27:00,20.8,7.2,0.00,SSE,154,0.0,0.0,55,0.00,,---,0.00,VWS V14.00,2013-02-10 20:27:00,
2013-02-10 13:28:00,20.8,7.2,0.00,SSE,154,0.0,0.0,55,0.00,,---,0.00,VWS V14.00,2013-02-10 20:28:00,
2013-02-10 13:29:00,20.8,7.2,0.00,SSE,154,0.0,0.0,55,0.00,,---,0.00,VWS V14.00,2013-02-10 20:29:00,
2013-02-10 13:31:00,20.8,7.2,0.00,SSE,154,0.0,0.0,55,0.00,,---,0.00,VWS V14.00,2013-02-10 20:31:00,
2013-02-10 13:32:00,20.8,7.2,0.00,SSE,154,0.0,0.0,55,0.00,,---,0.00,VWS V14.00,2013-02-10 20:32:00,
2013-02-10 13:33:00,20.7,7.1,0.00,SSE,163,0.0,0.0,55,0.00,,---,0.00,VWS V14.00,2013-02-10 20:33:00,
2013-02-10 13:34:00,20.7,7.1,0.00,SE,139,2.2,2.2,55,0.00,,---,0.00,VWS V14.00,2013-02-10 20:34:00,
2013-02-10 13:36:00,20.7,7.1,0.00,SE,139,0.0,0.0,55,0.00,,---,0.00,VWS V14.00,2013-02-10 20:36:00,
2013-02-10 13:37:00,20.7,7.1,0.00,SE,139,0.0,0.0,55,0.00,,---,0.00,VWS V14.00,2013-02-10 20:37:00,
2013-02-10 13:38:00,20.7,7.1,0.00,SE,139,0.0,0.0,55,0.00,,---,0.00,VWS V14.00,2013-02-10 20:38:00,
2013-02-10 13:39:00,20.7,7.1,0.00,SE,139,0.0,0.0,55,0.00,,---,0.00,VWS V14.00,2013-02-10 20:39:00,
2013-02-10 13:41:00,20.7,7.1,0.00,SE,139,0.0,0.0,55,0.00,,---,0.00,VWS V14.00,2013-02-10 20:41:00,
2013-02-10 13:42:00,20.5,6.9,0.00,SE,139,0.0,0.0,55,0.00,,---,0.00,VWS V14.00,2013-02-10 20:42:00,
2013-02-10 13:43:00,20.5,6.9,0.00,SE,139,0.0,0.0,55,0.00,,---,0.00,VWS V14.00,2013-02-10 20:43:00,
2013-02-10 13:44:00,20.5,6.9,0.00,SE,139,0.0,0.0,55,0.00,,---,0.00,VWS V14.00,2013-02-10 20:44:00,
2013-02-10 13:46:00,20.5,7.3,0.00,SE,142,0.0,0.0,56,0.00,,---,0.00,VWS V14.00,2013-02-10 20:46:00,
2013-02-10 13:47:00,20.5,7.3,0.00,SE,142,0.0,0.0,56,0.00,,---,0.00,VWS V14.00,2013-02-10 20:47:00,
2013-02-10 13:49:00,20.5,7.3,0.00,ESE,109,0.0,0.0,56,0.00,,---,0.00,VWS V14.00,2013-02-10 20:49:00,
2013-02-10 13:51:00,20.5,7.3,0.00,ESE,108,0.0,0.0,56,0.00,,---,0.00,VWS V14.00,2013-02-10 20:51:00,
2013-02-10 13:52:00,20.5,7.3,0.00,ESE,108,0.0,0.0,56,0.00,,---,0.00,VWS V14.00,2013-02-10 20:52:00,
2013-02-10 13:54:00,20.5,7.3,0.00,ESE,108,0.0,0.0,56,0.00,,---,0.00,VWS V14.00,2013-02-10 20:54:00,
2013-02-10 13:56:00,20.3,6.7,0.00,ESE,123,0.0,0.0,55,0.00,,---,0.00,VWS V14.00,2013-02-10 20:56:00,
2013-02-10 13:57:00,20.3,6.7,0.00,SE,124,0.0,0.0,55,0.00,,---,0.00,VWS V14.00,2013-02-10 20:57:00,
2013-02-10 13:59:00,20.5,7.3,0.00,SE,124,0.0,0.0,56,0.00,,---,0.00,VWS V14.00,2013-02-10 20:59:00,
2013-02-10 14:02:00,20.5,7.3,0.00,SE,133,0.0,0.0,56,0.00,,---,0.00,VWS V14.00,2013-02-10 21:02:00,
2013-02-10 14:04:00,20.5,7.3,0.00,South,179,0.0,0.0,56,0.00,,---,0.00,VWS V14.00,2013-02-10 21:04:00,
2013-02-10 14:05:00,20.5,7.3,0.00,SE,130,2.2,2.7,56,0.00,,---,0.00,VWS V14.00,2013-02-10 21:05:00,
2013-02-10 14:07:00,20.5,7.3,0.00,SSE,160,0.0,0.0,56,0.00,,---,0.00,VWS V14.00,2013-02-10 21:07:00,
2013-02-10 14:09:00,20.5,7.7,0.00,ESE,106,0.0,0.0,57,0.00,,---,0.00,VWS V14.00,2013-02-10 21:09:00,
2013-02-10 14:10:00,20.5,7.7,0.00,ESE,106,0.0,0.0,57,0.00,,---,0.00,VWS V14.00,2013-02-10 21:10:00,
2013-02-10 14:12:00,20.7,7.8,0.00,ESE,117,0.0,0.0,57,0.00,,---,0.00,VWS V14.00,2013-02-10 21:12:00,
2013-02-10 14:14:00,20.7,7.8,0.00,ESE,120,0.0,0.0,57,0.00,,---,0.00,VWS V14.00,2013-02-10 21:14:00,
2013-02-10 14:15:00,20.7,7.8,0.00,ESE,120,0.0,0.0,57,0.00,,---,0.00,VWS V14.00,2013-02-10 21:15:00,
2013-02-10 14:17:00,20.7,7.8,0.00,ESE,113,0.0,0.0,57,0.00,,---,0.00,VWS V14.00,2013-02-10 21:17:00,
2013-02-10 14:18:00,20.7,7.8,0.00,ESE,108,0.0,0.0,57,0.00,,---,0.00,VWS V14.00,2013-02-10 21:18:00,
2013-02-10 14:19:00,20.7,7.8,0.00,SSE,150,0.0,0.0,57,0.00,,---,0.00,VWS V14.00,2013-02-10 21:19:00,
2013-02-10 14:20:00,20.7,7.8,0.00,SSE,150,0.0,0.0,57,0.00,,---,0.00,VWS V14.00,2013-02-10 21:20:00,
2013-02-10 14:22:00,20.7,7.8,0.00,ESE,116,0.0,0.0,57,0.00,,---,0.00,VWS V14.00,2013-02-10 21:22:00,
2013-02-10 14:23:00,20.7,7.8,0.00,ESE,116,0.0,0.0,57,0.00,,---,0.00,VWS V14.00,2013-02-10 21:23:00,
2013-02-10 14:24:00,20.7,7.8,0.00,ESE,116,0.0,0.0,57,0.00,,---,0.00,VWS V14.00,2013-02-10 21:24:00,
2013-02-10 14:25:00,20.7,7.8,0.00,ESE,119,0.0,0.0,57,0.00,,---,0.00,VWS V14.00,2013-02-10 21:25:00,
2013-02-10 14:27:00,20.8,7.6,0.00,SW,233,0.0,0.0,56,0.00,,---,0.00,VWS V14.00,2013-02-10 21:27:00,
2013-02-10 14:28:00,20.8,7.6,0.00,SW,233,0.0,0.0,56,0.00,,---,0.00,VWS V14.00,2013-02-10 21:28:00,
2013-02-10 14:30:00,20.8,7.6,0.00,SW,233,0.0,0.0,56,0.00,,---,0.00,VWS V14.00,2013-02-10 21:30:00,
2013-02-10 14:32:00,20.8,7.6,0.00,WSW,248,0.0,0.0,56,0.00,,---,0.00,VWS V14.00,2013-02-10 21:32:00,
2013-02-10 14:33:00,20.8,7.6,0.00,WSW,248,0.0,0.0,56,0.00,,---,0.00,VWS V14.00,2013-02-10 21:33:00,
2013-02-10 14:35:00,20.8,7.6,0.00,WSW,248,0.0,0.0,56,0.00,,---,0.00,VWS V14.00,2013-02-10 21:35:00,
2013-02-10 14:37:00,19.2,6.1,0.00,WSW,237,0.0,0.0,56,0.00,,---,0.00,VWS V14.00,2013-02-10 21:37:00,
2013-02-10 14:38:00,20.8,7.2,0.00,West,261,0.0,0.0,55,0.00,,---,0.00,VWS V14.00,2013-02-10 21:38:00,
2013-02-10 14:40:00,20.8,7.2,0.00,West,261,0.0,0.0,55,0.00,,---,0.00,VWS V14.00,2013-02-10 21:40:00,
2013-02-10 14:41:00,20.8,7.2,0.00,West,261,0.0,0.0,55,0.00,,---,0.00,VWS V14.00,2013-02-10 21:41:00,
2013-02-10 14:42:00,20.8,7.2,0.00,West,263,0.0,0.0,55,0.00,,---,0.00,VWS V14.00,2013-02-10 21:42:00,
2013-02-10 14:44:00,20.7,7.1,0.00,West,263,0.0,0.0,55,0.00,,---,0.00,VWS V14.00,2013-02-10 21:44:00,
2013-02-10 14:49:00,20.7,7.1,0.00,West,263,0.0,0.0,55,0.00,,---,0.00,VWS V14.00,2013-02-10 21:49:00,
2013-02-10 14:50:00,20.7,7.1,0.00,West,263,0.0,0.0,55,0.00,,---,0.00,VWS V14.00,2013-02-10 21:50:00,
2013-02-10 14:55:00,20.5,6.5,0.00,West,262,0.0,0.0,54,0.00,,---,0.00,VWS V14.00,2013-02-10 21:55:00,
2013-02-10 15:00:00,20.5,6.9,0.00,West,260,0.0,0.0,55,0.00,,---,0.00,VWS V14.00,2013-02-10 22:00:00,
2013-02-10 15:05:00,20.5,7.3,0.00,WSW,253,0.0,0.0,56,0.00,,---,0.00,VWS V14.00,2013-02-10 22:05:00,
2013-02-10 15:10:00,20.7,7.5,0.00,SW,217,0.0,0.0,56,0.00,,---,0.00,VWS V14.00,2013-02-10 22:10:00,
2013-02-10 15:15:00,20.7,7.8,0.00,SE,129,0.0,0.0,57,0.00,,---,0.00,VWS V14.00,2013-02-10 22:15:00,
2013-02-10 15:20:00,20.5,7.7,0.00,ESE,106,0.0,0.0,57,0.00,,---,0.00,VWS V14.00,2013-02-10 22:20:00,
2013-02-10 15:25:00,20.5,7.7,0.00,ESE,107,0.0,0.0,57,0.00,,---,0.00,VWS V14.00,2013-02-10 22:25:00,
2013-02-10 15:26:00,20.5,7.7,0.00,ESE,107,0.0,0.0,57,0.00,,---,0.00,VWS V14.00,2013-02-10 22:26:00,
2013-02-10 15:30:00,20.5,7.7,0.00,ESE,109,0.0,0.0,57,0.00,,---,0.00,VWS V14.00,2013-02-10 22:30:00,
2013-02-10 15:31:00,20.5,7.7,0.00,ESE,109,0.0,0.0,57,0.00,,---,0.00,VWS V14.00,2013-02-10 22:31:00,
2013-02-10 15:35:00,20.5,7.7,0.00,ESE,109,0.0,0.0,57,0.00,,---,0.00,VWS V14.00,2013-02-10 22:35:00,
2013-02-10 15:36:00,20.5,7.7,0.00,ESE,109,0.0,0.0,57,0.00,,---,0.00,VWS V14.00,2013-02-10 22:36:00,
2013-02-10 15:40:00,20.5,7.7,0.00,ESE,112,0.0,2.2,57,0.00,,---,0.00,VWS V14.00,2013-02-10 22:40:00,
2013-02-10 15:41:00,20.5,7.3,0.00,ESE,109,0.0,2.2,56,0.00,,---,0.00,VWS V14.00,2013-02-10 22:41:00,
2013-02-10 15:45:00,20.5,7.3,0.00,ESE,112,0.0,0.0,56,0.00,,---,0.00,VWS V14.00,2013-02-10 22:45:00,
2013-02-10 15:46:00,20.5,7.3,0.00,ESE,112,0.0,0.0,56,0.00,,---,0.00,VWS V14.00,2013-02-10 22:46:00,
2013-02-10 15:50:00,20.5,7.3,0.00,ESE,112,0.0,0.0,56,0.00,,---,0.00,VWS V14.00,2013-02-10 22:50:00,
2013-02-10 15:51:00,20.5,7.3,0.00,ESE,112,0.0,0.0,56,0.00,,---,0.00,VWS V14.00,2013-02-10 22:51:00,
2013-02-10 15:55:00,20.5,6.9,0.00,ESE,112,0.0,0.0,55,0.00,,---,0.00,VWS V14.00,2013-02-10 22:55:00,
2013-02-10 15:56:00,20.5,6.9,0.00,ESE,112,0.0,0.0,55,0.00,,---,0.00,VWS V14.00,2013-02-10 22:56:00,
2013-02-10 16:00:00,20.5,6.9,0.00,ESE,112,0.0,0.0,55,0.00,,---,0.00,VWS V14.00,2013-02-10 23:00:00,
2013-02-10 16:01:00,20.5,6.9,0.00,ESE,112,0.0,0.0,55,0.00,,---,0.00,VWS V14.00,2013-02-10 23:01:00,
2013-02-10 16:06:00,20.3,6.7,0.00,ESE,112,0.0,0.0,55,0.00,,---,0.00,VWS V14.00,2013-02-10 23:06:00,
2013-02-10 16:11:00,20.3,6.7,0.00,ESE,112,2.7,2.7,55,0.00,,---,0.00,VWS V14.00,2013-02-10 23:11:00,
2013-02-10 16:16:00,20.3,6.7,0.00,ESE,113,0.0,0.0,55,0.00,,---,0.00,VWS V14.00,2013-02-10 23:16:00,
2013-02-10 16:21:00,20.1,6.6,0.00,ESE,116,0.0,0.0,55,0.00,,---,0.00,VWS V14.00,2013-02-10 23:21:00,
2013-02-10 16:26:00,19.9,6.4,0.00,ESE,113,0.0,0.0,55,0.00,,---,0.00,VWS V14.00,2013-02-10 23:26:00,
2013-02-10 16:31:00,19.9,6.0,0.00,ESE,117,0.0,0.0,54,0.00,,---,0.00,VWS V14.00,2013-02-10 23:31:00,
2013-02-10 16:32:00,19.9,6.0,0.00,ESE,117,0.0,0.0,54,0.00,,---,0.00,VWS V14.00,2013-02-10 23:32:00,
2013-02-10 16:36:00,19.9,6.0,0.00,ESE,117,0.0,0.0,54,0.00,,---,0.00,VWS V14.00,2013-02-10 23:36:00,
2013-02-10 16:37:00,19.9,6.0,0.00,ESE,117,0.0,0.0,54,0.00,,---,0.00,VWS V14.00,2013-02-10 23:37:00,
2013-02-10 16:41:00,19.8,5.8,0.00,ESE,117,0.0,0.0,54,0.00,,---,0.00,VWS V14.00,2013-02-10 23:41:00,
2013-02-10 16:42:00,19.8,5.8,0.00,ESE,117,0.0,0.0,54,0.00,,---,0.00,VWS V14.00,2013-02-10 23:42:00,
2013-02-10 16:46:00,19.8,5.8,0.00,ESE,117,0.0,0.0,54,0.00,,---,0.00,VWS V14.00,2013-02-10 23:46:00,
2013-02-10 16:47:00,19.8,5.8,0.00,ESE,114,0.0,0.0,54,0.00,,---,0.00,VWS V14.00,2013-02-10 23:47:00,
2013-02-10 16:51:00,19.6,5.7,0.00,ESE,117,0.0,0.0,54,0.00,,---,0.00,VWS V14.00,2013-02-10 23:51:00,
2013-02-10 16:52:00,19.6,5.7,0.00,ESE,117,0.0,0.0,54,0.00,,---,0.00,VWS V14.00,2013-02-10 23:52:00,
2013-02-10 16:56:00,19.4,5.9,0.00,ESE,113,0.0,0.0,55,0.00,,---,0.00,VWS V14.00,2013-02-10 23:56:00,
2013-02-10 16:57:00,19.4,5.9,0.00,ESE,117,0.0,0.0,55,0.00,,---,0.00,VWS V14.00,2013-02-10 23:57:00,
2013-02-10 17:01:00,19.4,5.9,0.00,ESE,117,0.0,0.0,55,0.00,,---,0.00,VWS V14.00,2013-02-11 00:01:00,
2013-02-10 17:02:00,19.2,5.7,0.00,ESE,117,0.0,0.0,55,0.00,,---,0.00,VWS V14.00,2013-02-11 00:02:00,
2013-02-10 17:06:00,19.2,5.7,0.00,ESE,116,0.0,0.0,55,0.00,,---,0.00,VWS V14.00,2013-02-11 00:06:00,
2013-02-10 17:07:00,19.2,5.7,0.00,ESE,116,0.0,0.0,55,0.00,,---,0.00,VWS V14.00,2013-02-11 00:07:00,
2013-02-10 17:08:00,19.2,5.7,0.00,ESE,116,0.0,0.0,55,0.00,,---,0.00,VWS V14.00,2013-02-11 00:08:00,
2013-02-10 17:11:00,19.0,5.5,0.00,ESE,116,0.0,0.0,55,0.00,,---,0.00,VWS V14.00,2013-02-11 00:11:00,
2013-02-10 17:12:00,19.0,5.5,0.00,ESE,116,0.0,0.0,55,0.00,,---,0.00,VWS V14.00,2013-02-11 00:12:00,
2013-02-10 17:13:00,19.0,5.5,0.00,ESE,116,0.0,0.0,55,0.00,,---,0.00,VWS V14.00,2013-02-11 00:13:00,
2013-02-10 17:16:00,18.7,5.2,0.00,ESE,116,0.0,0.0,55,0.00,,---,0.00,VWS V14.00,2013-02-11 00:16:00,
2013-02-10 17:17:00,18.7,5.2,0.00,ESE,116,0.0,0.0,55,0.00,,---,0.00,VWS V14.00,2013-02-11 00:17:00,
2013-02-10 17:18:00,18.7,4.8,0.00,ESE,116,0.0,0.0,54,0.00,,---,0.00,VWS V14.00,2013-02-11 00:18:00,
2013-02-10 17:21:00,18.7,4.8,0.00,ESE,116,0.0,0.0,54,0.00,,---,0.00,VWS V14.00,2013-02-11 00:21:00,
2013-02-10 17:22:00,18.7,4.8,0.00,ESE,116,0.0,0.0,54,0.00,,---,0.00,VWS V14.00,2013-02-11 00:22:00,
2013-02-10 17:23:00,18.5,4.6,0.00,ESE,118,0.0,0.0,54,0.00,,---,0.00,VWS V14.00,2013-02-11 00:23:00,
2013-02-10 17:27:00,18.5,4.6,0.00,ESE,118,0.0,0.0,54,0.00,,---,0.00,VWS V14.00,2013-02-11 00:27:00,
2013-02-10 17:28:00,18.5,4.6,0.00,ESE,118,0.0,0.0,54,0.00,,---,0.00,VWS V14.00,2013-02-11 00:28:00,
2013-02-10 17:32:00,18.3,4.5,0.00,ESE,118,0.0,0.0,54,0.00,,---,0.00,VWS V14.00,2013-02-11 00:32:00,
2013-02-10 17:34:00,18.3,4.5,0.00,ESE,118,0.0,0.0,54,0.00,,---,0.00,VWS V14.00,2013-02-11 00:34:00,
2013-02-10 17:37:00,18.3,4.5,0.00,ESE,118,0.0,0.0,54,0.00,,---,0.00,VWS V14.00,2013-02-11 00:37:00,
2013-02-10 17:39:00,18.1,3.9,0.00,ESE,118,0.0,0.0,53,0.00,,---,0.00,VWS V14.00,2013-02-11 00:39:00,
2013-02-10 17:42:00,18.1,3.9,0.00,ESE,118,0.0,0.0,53,0.00,,---,0.00,VWS V14.00,2013-02-11 00:42:00,
2013-02-10 17:44:00,18.1,3.9,0.00,ESE,118,0.0,0.0,53,0.00,,---,0.00,VWS V14.00,2013-02-11 00:44:00,
2013-02-10 17:47:00,18.0,3.7,0.00,ESE,113,0.0,0.0,53,0.00,,---,0.00,VWS V14.00,2013-02-11 00:47:00,
2013-02-10 17:49:00,17.8,3.6,0.00,ESE,117,0.0,0.0,53,0.00,,---,0.00,VWS V14.00,2013-02-11 00:49:00,
2013-02-10 17:52:00,17.8,3.6,0.00,ESE,118,0.0,0.0,53,0.00,,---,0.00,VWS V14.00,2013-02-11 00:52:00,
2013-02-10 17:53:00,17.8,3.6,0.00,ESE,118,0.0,0.0,53,0.00,,---,0.00,VWS V14.00,2013-02-11 00:53:00,
2013-02-10 17:54:00,17.6,3.8,0.00,ESE,118,0.0,0.0,54,0.00,,---,0.00,VWS V14.00,2013-02-11 00:54:00,
2013-02-10 17:57:00,17.6,3.8,0.00,ESE,118,0.0,0.0,54,0.00,,---,0.00,VWS V14.00,2013-02-11 00:57:00,
2013-02-10 17:58:00,17.6,3.8,0.00,ESE,118,0.0,0.0,54,0.00,,---,0.00,VWS V14.00,2013-02-11 00:58:00,
2013-02-10 17:59:00,17.6,3.8,0.00,ESE,118,0.0,0.0,54,0.00,,---,0.00,VWS V14.00,2013-02-11 00:59:00,
2013-02-10 18:03:00,17.4,3.2,0.00,ESE,118,0.0,0.0,53,0.00,,---,0.00,VWS V14.00,2013-02-11 01:03:00,
2013-02-10 18:04:00,17.4,3.2,0.00,ESE,118,0.0,0.0,53,0.00,,---,0.00,VWS V14.00,2013-02-11 01:04:00,
2013-02-10 18:08:00,17.4,3.2,0.00,ESE,118,0.0,0.0,53,0.00,,---,0.00,VWS V14.00,2013-02-11 01:08:00,
2013-02-10 18:09:00,17.2,3.1,0.00,ESE,118,0.0,0.0,53,0.00,,---,0.00,VWS V14.00,2013-02-11 01:09:00,
2013-02-10 18:13:00,17.1,2.9,0.00,ESE,118,0.0,0.0,53,0.00,,---,0.00,VWS V14.00,2013-02-11 01:13:00,
2013-02-10 18:15:00,17.1,3.3,0.00,ESE,118,0.0,0.0,54,0.00,,---,0.00,VWS V14.00,2013-02-11 01:15:00,
2013-02-10 18:18:00,17.1,3.3,0.00,ESE,118,0.0,0.0,54,0.00,,---,0.00,VWS V14.00,2013-02-11 01:18:00,
2013-02-10 18:20:00,17.1,3.3,0.00,ESE,118,0.0,0.0,54,0.00,,---,0.00,VWS V14.00,2013-02-11 01:20:00,
2013-02-10 18:23:00,16.9,3.1,0.00,ESE,113,0.0,0.0,54,0.00,,---,0.00,VWS V14.00,2013-02-11 01:23:00,
2013-02-10 18:25:00,16.9,3.1,0.00,ESE,118,0.0,0.0,54,0.00,,---,0.00,VWS V14.00,2013-02-11 01:25:00,
2013-02-10 18:28:00,16.7,3.0,0.00,ESE,118,0.0,0.0,54,0.00,,---,0.00,VWS V14.00,2013-02-11 01:28:00,
2013-02-10 18:29:00,16.7,3.0,0.00,ESE,118,0.0,0.0,54,0.00,,---,0.00,VWS V14.00,2013-02-11 01:29:00,
2013-02-10 18:30:00,16.7,3.0,0.00,ESE,118,0.0,0.0,54,0.00,,---,0.00,VWS V14.00,2013-02-11 01:30:00,
2013-02-10 18:33:00,16.7,3.0,0.00,ESE,118,0.0,0.0,54,0.00,,---,0.00,VWS V14.00,2013-02-11 01:33:00,
2013-02-10 18:34:00,16.7,3.0,0.00,ESE,118,0.0,0.0,54,0.00,,---,0.00,VWS V14.00,2013-02-11 01:34:00,
2013-02-10 18:35:00,16.7,3.0,0.00,ESE,115,0.0,0.0,54,0.00,,---,0.00,VWS V14.00,2013-02-11 01:35:00,
2013-02-10 18:38:00,16.7,3.0,0.00,ESE,118,0.0,0.0,54,0.00,,---,0.00,VWS V14.00,2013-02-11 01:38:00,
2013-02-10 18:39:00,16.7,3.0,0.00,ESE,117,0.0,0.0,54,0.00,,---,0.00,VWS V14.00,2013-02-11 01:39:00,
2013-02-10 18:40:00,16.5,2.8,0.00,ESE,113,0.0,0.0,54,0.00,,---,0.00,VWS V14.00,2013-02-11 01:40:00,
2013-02-10 18:43:00,16.5,2.8,0.00,ESE,118,0.0,0.0,54,0.00,,---,0.00,VWS V14.00,2013-02-11 01:43:00,
2013-02-10 18:44:00,16.5,2.8,0.00,ESE,118,0.0,0.0,54,0.00,,---,0.00,VWS V14.00,2013-02-11 01:44:00,
2013-02-10 18:45:00,16.5,2.8,0.00,ESE,118,0.0,0.0,54,0.00,,---,0.00,VWS V14.00,2013-02-11 01:45:00,
2013-02-10 18:48:00,16.5,2.8,0.00,ESE,115,0.0,0.0,54,0.00,,---,0.00,VWS V14.00,2013-02-11 01:48:00,
2013-02-10 18:49:00,16.5,3.2,0.00,ESE,118,0.0,0.0,55,0.00,,---,0.00,VWS V14.00,2013-02-11 01:49:00,
2013-02-10 18:50:00,16.5,3.2,0.00,ESE,118,0.0,0.0,55,0.00,,---,0.00,VWS V14.00,2013-02-11 01:50:00,
2013-02-10 18:53:00,16.3,2.6,0.00,ESE,117,0.0,0.0,54,0.00,,---,0.00,VWS V14.00,2013-02-11 01:53:00,
2013-02-10 18:54:00,16.3,2.6,0.00,ESE,117,0.0,0.0,54,0.00,,---,0.00,VWS V14.00,2013-02-11 01:54:00,
2013-02-10 18:55:00,16.3,2.6,0.00,ESE,118,0.0,0.0,54,0.00,,---,0.00,VWS V14.00,2013-02-11 01:55:00,
2013-02-10 18:58:00,16.2,2.5,0.00,ESE,118,0.0,0.0,54,0.00,,---,0.00,VWS V14.00,2013-02-11 01:58:00,
2013-02-10 18:59:00,16.2,2.5,0.00,ESE,118,0.0,0.0,54,0.00,,---,0.00,VWS V14.00,2013-02-11 01:59:00,
2013-02-10 19:00:00,16.2,2.5,0.00,ESE,118,0.0,0.0,54,0.00,,---,0.00,VWS V14.00,2013-02-11 02:00:00,
2013-02-10 19:03:00,16.2,2.5,0.00,ESE,118,0.0,0.0,54,0.00,,---,0.00,VWS V14.00,2013-02-11 02:03:00,
2013-02-10 19:04:00,16.0,2.3,0.00,ESE,118,0.0,0.0,54,0.00,,---,0.00,VWS V14.00,2013-02-11 02:04:00,
2013-02-10 19:05:00,16.0,2.3,0.00,ESE,118,0.0,0.0,54,0.00,,---,0.00,VWS V14.00,2013-02-11 02:05:00,
2013-02-10 19:09:00,16.0,2.7,0.00,ESE,118,0.0,0.0,55,0.00,,---,0.00,VWS V14.00,2013-02-11 02:09:00,
2013-02-10 19:10:00,15.8,2.5,0.00,ESE,118,0.0,0.0,55,0.00,,---,0.00,VWS V14.00,2013-02-11 02:10:00,
2013-02-10 19:14:00,15.8,2.5,0.00,ESE,118,0.0,0.0,55,0.00,,---,0.00,VWS V14.00,2013-02-11 02:14:00,
2013-02-10 19:15:00,15.8,2.5,0.00,ESE,115,0.0,0.0,55,0.00,,---,0.00,VWS V14.00,2013-02-11 02:15:00,
2013-02-10 19:19:00,15.6,2.3,0.00,ESE,118,0.0,0.0,55,0.00,,---,0.00,VWS V14.00,2013-02-11 02:19:00,
2013-02-10 19:20:00,15.6,2.3,0.00,ESE,113,0.0,0.0,55,0.00,,---,0.00,VWS V14.00,2013-02-11 02:20:00,
2013-02-10 19:24:00,15.4,2.2,0.00,ESE,113,0.0,0.0,55,0.00,,---,0.00,VWS V14.00,2013-02-11 02:24:00,
2013-02-10 19:25:00,15.4,2.2,0.00,ESE,117,0.0,0.0,55,0.00,,---,0.00,VWS V14.00,2013-02-11 02:25:00,
2013-02-10 19:29:00,15.4,2.2,0.00,ESE,118,0.0,0.0,55,0.00,,---,0.00,VWS V14.00,2013-02-11 02:29:00,
2013-02-10 19:30:00,15.4,2.2,0.00,ESE,117,0.0,0.0,55,0.00,,---,0.00,VWS V14.00,2013-02-11 02:30:00,
2013-02-10 19:34:00,15.4,2.2,0.00,ESE,118,0.0,0.0,55,0.00,,---,0.00,VWS V14.00,2013-02-11 02:34:00,
2013-02-10 19:35:00,15.4,2.2,0.00,ESE,118,0.0,0.0,55,0.00,,---,0.00,VWS V14.00,2013-02-11 02:35:00,
2013-02-10 19:36:00,15.4,2.2,0.00,ESE,118,0.0,0.0,55,0.00,,---,0.00,VWS V14.00,2013-02-11 02:36:00,
2013-02-10 19:39:00,15.3,2.0,0.00,ESE,115,0.0,0.0,55,0.00,,---,0.00,VWS V14.00,2013-02-11 02:39:00,
2013-02-10 19:40:00,15.3,2.0,0.00,ESE,117,0.0,0.0,55,0.00,,---,0.00,VWS V14.00,2013-02-11 02:40:00,
2013-02-10 19:44:00,15.3,2.0,0.00,ESE,118,0.0,0.0,55,0.00,,---,0.00,VWS V14.00,2013-02-11 02:44:00,
2013-02-10 19:45:00,15.3,2.0,0.00,ESE,118,0.0,0.0,55,0.00,,---,0.00,VWS V14.00,2013-02-11 02:45:00,
2013-02-10 19:46:00,15.1,1.8,0.00,ESE,118,0.0,0.0,55,0.00,,---,0.00,VWS V14.00,2013-02-11 02:46:00,
2013-02-10 19:49:00,15.1,1.8,0.00,ESE,118,0.0,0.0,55,0.00,,---,0.00,VWS V14.00,2013-02-11 02:49:00,
2013-02-10 19:50:00,15.1,1.8,0.00,ESE,118,0.0,0.0,55,0.00,,---,0.00,VWS V14.00,2013-02-11 02:50:00,
2013-02-10 19:51:00,15.1,1.8,0.00,ESE,118,0.0,0.0,55,0.00,,---,0.00,VWS V14.00,2013-02-11 02:51:00,
2013-02-10 19:54:00,15.1,1.8,0.00,ESE,118,0.0,0.0,55,0.00,,---,0.00,VWS V14.00,2013-02-11 02:54:00,
2013-02-10 19:55:00,15.1,2.2,0.00,ESE,118,0.0,0.0,56,0.00,,---,0.00,VWS V14.00,2013-02-11 02:55:00,
2013-02-10 19:56:00,15.1,1.8,0.00,ESE,118,0.0,0.0,55,0.00,,---,0.00,VWS V14.00,2013-02-11 02:56:00,
2013-02-10 19:59:00,15.1,2.2,0.00,ESE,118,0.0,0.0,56,0.00,,---,0.00,VWS V14.00,2013-02-11 02:59:00,
2013-02-10 20:00:00,15.1,1.8,0.00,ESE,118,0.0,0.0,55,0.00,,---,0.00,VWS V14.00,2013-02-11 03:00:00,
2013-02-10 20:01:00,15.1,1.8,0.00,ESE,118,0.0,0.0,55,0.00,,---,0.00,VWS V14.00,2013-02-11 03:01:00,
2013-02-10 20:04:00,14.9,2.0,0.00,ESE,118,0.0,0.0,56,0.00,,---,0.00,VWS V14.00,2013-02-11 03:04:00,
2013-02-10 20:05:00,14.9,2.0,0.00,ESE,118,0.0,0.0,56,0.00,,---,0.00,VWS V14.00,2013-02-11 03:05:00,
2013-02-10 20:06:00,14.9,2.0,0.00,ESE,118,0.0,0.0,56,0.00,,---,0.00,VWS V14.00,2013-02-11 03:06:00,
2013-02-10 20:10:00,14.9,2.0,0.00,ESE,118,0.0,0.0,56,0.00,,---,0.00,VWS V14.00,2013-02-11 03:10:00,
2013-02-10 20:11:00,14.7,1.9,0.00,ESE,118,0.0,0.0,56,0.00,,---,0.00,VWS V14.00,2013-02-11 03:11:00,
2013-02-10 20:15:00,14.7,1.9,0.00,ESE,118,0.0,0.0,56,0.00,,---,0.00,VWS V14.00,2013-02-11 03:15:00,
2013-02-10 20:16:00,14.7,1.9,0.00,ESE,118,0.0,0.0,56,0.00,,---,0.00,VWS V14.00,2013-02-11 03:16:00,
2013-02-10 20:17:00,14.7,1.9,0.00,ESE,116,0.0,0.0,56,0.00,,---,0.00,VWS V14.00,2013-02-11 03:17:00,
2013-02-10 20:20:00,14.7,1.9,0.00,ESE,117,0.0,0.0,56,0.00,,---,0.00,VWS V14.00,2013-02-11 03:20:00,
2013-02-10 20:21:00,14.5,1.7,0.00,ESE,115,0.0,0.0,56,0.00,,---,0.00,VWS V14.00,2013-02-11 03:21:00,
2013-02-10 20:22:00,14.5,1.7,0.00,ESE,117,0.0,0.0,56,0.00,,---,0.00,VWS V14.00,2013-02-11 03:22:00,
2013-02-10 20:25:00,14.5,1.7,0.00,ESE,118,0.0,0.0,56,0.00,,---,0.00,VWS V14.00,2013-02-11 03:25:00,
2013-02-10 20:26:00,14.5,1.7,0.00,ESE,118,0.0,0.0,56,0.00,,---,0.00,VWS V14.00,2013-02-11 03:26:00,
2013-02-10 20:27:00,14.5,1.7,0.00,ESE,115,0.0,0.0,56,0.00,,---,0.00,VWS V14.00,2013-02-11 03:27:00,
2013-02-10 20:30:00,14.4,1.5,0.00,ESE,118,0.0,0.0,56,0.00,,---,0.00,VWS V14.00,2013-02-11 03:30:00,
2013-02-10 20:31:00,14.4,1.5,0.00,ESE,118,0.0,0.0,56,0.00,,---,0.00,VWS V14.00,2013-02-11 03:31:00,
2013-02-10 20:32:00,14.4,1.5,0.00,ESE,117,0.0,0.0,56,0.00,,---,0.00,VWS V14.00,2013-02-11 03:32:00,
2013-02-10 20:35:00,14.4,1.5,0.00,ESE,118,0.0,0.0,56,0.00,,---,0.00,VWS V14.00,2013-02-11 03:35:00,
2013-02-10 20:36:00,14.4,1.5,0.00,ESE,118,0.0,0.0,56,0.00,,---,0.00,VWS V14.00,2013-02-11 03:36:00,
2013-02-10 20:37:00,14.4,1.5,0.00,ESE,118,0.0,0.0,56,0.00,,---,0.00,VWS V14.00,2013-02-11 03:37:00,
2013-02-10 20:40:00,14.4,1.5,0.00,ESE,116,0.0,0.0,56,0.00,,---,0.00,VWS V14.00,2013-02-11 03:40:00,
2013-02-10 20:41:00,14.2,1.4,0.00,ESE,118,0.0,0.0,56,0.00,,---,0.00,VWS V14.00,2013-02-11 03:41:00,
2013-02-10 20:42:00,14.2,1.4,0.00,ESE,118,0.0,0.0,56,0.00,,---,0.00,VWS V14.00,2013-02-11 03:42:00,
2013-02-10 20:46:00,14.2,1.4,0.00,ESE,118,0.0,0.0,56,0.00,,---,0.00,VWS V14.00,2013-02-11 03:46:00,
2013-02-10 20:47:00,14.2,1.4,0.00,ESE,118,0.0,0.0,56,0.00,,---,0.00,VWS V14.00,2013-02-11 03:47:00,
2013-02-10 20:51:00,14.2,1.4,0.00,ESE,118,0.0,0.0,56,0.00,,---,0.00,VWS V14.00,2013-02-11 03:51:00,
2013-02-10 20:52:00,14.2,1.4,0.00,ESE,118,0.0,0.0,56,0.00,,---,0.00,VWS V14.00,2013-02-11 03:52:00,
2013-02-10 20:56:00,14.2,1.4,0.00,ESE,118,0.0,0.0,56,0.00,,---,0.00,VWS V14.00,2013-02-11 03:56:00,
2013-02-10 20:57:00,14.2,1.4,0.00,ESE,118,0.0,0.0,56,0.00,,---,0.00,VWS V14.00,2013-02-11 03:57:00,
2013-02-10 21:01:00,14.0,1.2,0.00,ESE,118,0.0,0.0,56,0.00,,---,0.00,VWS V14.00,2013-02-11 04:01:00,
2013-02-10 21:02:00,14.0,1.6,0.00,ESE,118,0.0,0.0,57,0.00,,---,0.00,VWS V14.00,2013-02-11 04:02:00,
2013-02-10 21:06:00,13.8,1.4,0.00,ESE,118,0.0,0.0,57,0.00,,---,0.00,VWS V14.00,2013-02-11 04:06:00,
2013-02-10 21:07:00,13.8,1.4,0.00,ESE,118,0.0,0.0,57,0.00,,---,0.00,VWS V14.00,2013-02-11 04:07:00,
2013-02-10 21:11:00,13.8,1.4,0.00,ESE,118,0.0,0.0,57,0.00,,---,0.00,VWS V14.00,2013-02-11 04:11:00,
2013-02-10 21:12:00,13.6,1.2,0.00,ESE,118,0.0,0.0,57,0.00,,---,0.00,VWS V14.00,2013-02-11 04:12:00,
2013-02-10 21:16:00,13.6,1.2,0.00,ESE,119,0.0,0.0,57,0.00,,---,0.00,VWS V14.00,2013-02-11 04:16:00,
2013-02-10 21:17:00,13.6,1.2,0.00,ESE,118,0.0,0.0,57,0.00,,---,0.00,VWS V14.00,2013-02-11 04:17:00,
2013-02-10 21:21:00,13.6,1.2,0.00,ESE,118,0.0,0.0,57,0.00,,---,0.00,VWS V14.00,2013-02-11 04:21:00,
2013-02-10 21:22:00,13.6,1.2,0.00,ESE,118,0.0,0.0,57,0.00,,---,0.00,VWS V14.00,2013-02-11 04:22:00,
2013-02-10 21:26:00,13.6,1.2,0.00,ESE,118,0.0,0.0,57,0.00,,---,0.00,VWS V14.00,2013-02-11 04:26:00,
2013-02-10 21:27:00,13.6,1.2,0.00,ESE,118,0.0,0.0,57,0.00,,---,0.00,VWS V14.00,2013-02-11 04:27:00,
2013-02-10 21:28:00,13.6,1.2,0.00,ESE,118,0.0,0.0,57,0.00,,---,0.00,VWS V14.00,2013-02-11 04:28:00,
2013-02-10 21:32:00,13.6,1.2,0.00,ESE,117,0.0,0.0,57,0.00,,---,0.00,VWS V14.00,2013-02-11 04:32:00,
2013-02-10 21:33:00,13.6,1.2,0.00,ESE,115,0.0,0.0,57,0.00,,---,0.00,VWS V14.00,2013-02-11 04:33:00,
2013-02-10 21:37:00,13.5,1.1,0.00,ESE,118,0.0,0.0,57,0.00,,---,0.00,VWS V14.00,2013-02-11 04:37:00,
2013-02-10 21:38:00,13.5,1.1,0.00,ESE,118,0.0,0.0,57,0.00,,---,0.00,VWS V14.00,2013-02-11 04:38:00,
2013-02-10 21:42:00,13.5,1.1,0.00,ESE,115,0.0,0.0,57,0.00,,---,0.00,VWS V14.00,2013-02-11 04:42:00,
2013-02-10 21:43:00,13.5,1.1,0.00,ESE,115,0.0,0.0,57,0.00,,---,0.00,VWS V14.00,2013-02-11 04:43:00,
2013-02-10 21:47:00,13.5,1.1,0.00,ESE,116,0.0,0.0,57,0.00,,---,0.00,VWS V14.00,2013-02-11 04:47:00,
2013-02-10 21:48:00,13.5,1.1,0.00,ESE,116,0.0,0.0,57,0.00,,---,0.00,VWS V14.00,2013-02-11 04:48:00,
2013-02-10 21:53:00,13.5,1.1,0.00,ESE,119,0.0,0.0,57,0.00,,---,0.00,VWS V14.00,2013-02-11 04:53:00,
2013-02-10 21:58:00,13.5,1.1,0.00,ESE,115,0.0,0.0,57,0.00,,---,0.00,VWS V14.00,2013-02-11 04:58:00,
2013-02-10 22:00:00,13.5,1.1,0.00,ESE,119,0.0,0.0,57,0.00,,---,0.00,VWS V14.00,2013-02-11 05:00:00,
2013-02-10 22:05:00,13.5,1.1,0.00,ESE,118,0.0,0.0,57,0.00,,---,0.00,VWS V14.00,2013-02-11 05:05:00,
2013-02-10 22:10:00,13.5,1.1,0.00,ESE,119,0.0,0.0,57,0.00,,---,0.00,VWS V14.00,2013-02-11 05:10:00,
2013-02-10 22:15:00,13.3,0.9,0.00,ESE,118,0.0,0.0,57,0.00,,---,0.00,VWS V14.00,2013-02-11 05:15:00,
2013-02-10 22:20:00,13.3,0.9,0.00,ESE,118,0.0,0.0,57,0.00,,---,0.00,VWS V14.00,2013-02-11 05:20:00,
2013-02-10 22:21:00,13.3,0.9,0.00,ESE,119,0.0,0.0,57,0.00,,---,0.00,VWS V14.00,2013-02-11 05:21:00,
2013-02-10 22:25:00,13.1,0.7,0.00,ESE,119,0.0,0.0,57,0.00,,---,0.00,VWS V14.00,2013-02-11 05:25:00,
2013-02-10 22:26:00,13.1,0.7,0.00,ESE,119,0.0,0.0,57,0.00,,---,0.00,VWS V14.00,2013-02-11 05:26:00,
2013-02-10 22:30:00,12.9,0.6,0.00,ESE,119,0.0,0.0,57,0.00,,---,0.00,VWS V14.00,2013-02-11 05:30:00,
2013-02-10 22:31:00,12.9,0.6,0.00,ESE,119,0.0,0.0,57,0.00,,---,0.00,VWS V14.00,2013-02-11 05:31:00,
2013-02-10 22:35:00,12.9,0.6,0.00,ESE,119,0.0,0.0,57,0.00,,---,0.00,VWS V14.00,2013-02-11 05:35:00,
2013-02-10 22:36:00,12.9,0.6,0.00,ESE,119,0.0,0.0,57,0.00,,---,0.00,VWS V14.00,2013-02-11 05:36:00,
2013-02-10 22:40:00,12.9,0.6,0.00,ESE,119,0.0,0.0,57,0.00,,---,0.00,VWS V14.00,2013-02-11 05:40:00,
2013-02-10 22:41:00,12.9,0.6,0.00,ESE,119,0.0,0.0,57,0.00,,---,0.00,VWS V14.00,2013-02-11 05:41:00,
2013-02-10 22:45:00,12.9,0.6,0.00,ESE,119,0.0,0.0,57,0.00,,---,0.00,VWS V14.00,2013-02-11 05:45:00,
2013-02-10 22:46:00,12.9,0.6,0.00,ESE,119,0.0,0.0,57,0.00,,---,0.00,VWS V14.00,2013-02-11 05:46:00,
2013-02-10 22:50:00,12.7,0.4,0.00,ESE,119,0.0,0.0,57,0.00,,---,0.00,VWS V14.00,2013-02-11 05:50:00,
2013-02-10 22:51:00,12.7,0.4,0.00,ESE,119,0.0,0.0,57,0.00,,---,0.00,VWS V14.00,2013-02-11 05:51:00,
2013-02-10 22:55:00,12.7,0.4,0.00,ESE,119,0.0,0.0,57,0.00,,---,0.00,VWS V14.00,2013-02-11 05:55:00,
2013-02-10 22:56:00,12.7,0.4,0.00,ESE,119,0.0,0.0,57,0.00,,---,0.00,VWS V14.00,2013-02-11 05:56:00,
2013-02-10 23:00:00,12.6,0.2,0.00,ESE,115,0.0,0.0,57,0.00,,---,0.00,VWS V14.00,2013-02-11 06:00:00,
2013-02-10 23:01:00,12.6,0.2,0.00,ESE,115,0.0,0.0,57,0.00,,---,0.00,VWS V14.00,2013-02-11 06:01:00,
2013-02-10 23:02:00,12.6,0.2,0.00,ESE,118,0.0,0.0,57,0.00,,---,0.00,VWS V14.00,2013-02-11 06:02:00,
2013-02-10 23:06:00,12.6,0.2,0.00,ESE,119,0.0,0.0,57,0.00,,---,0.00,VWS V14.00,2013-02-11 06:06:00,
2013-02-10 23:07:00,12.6,0.2,0.00,ESE,119,0.0,0.0,57,0.00,,---,0.00,VWS V14.00,2013-02-11 06:07:00,
2013-02-10 23:11:00,12.4,0.1,0.00,ESE,115,0.0,0.0,57,0.00,,---,0.00,VWS V14.00,2013-02-11 06:11:00,
2013-02-10 23:12:00,12.4,0.1,0.00,ESE,117,0.0,0.0,57,0.00,,---,0.00,VWS V14.00,2013-02-11 06:12:00,
2013-02-10 23:16:00,12.2,-0.1,0.00,ESE,119,0.0,0.0,57,0.00,,---,0.00,VWS V14.00,2013-02-11 06:16:00,
2013-02-10 23:17:00,12.2,-0.1,0.00,ESE,119,0.0,0.0,57,0.00,,---,0.00,VWS V14.00,2013-02-11 06:17:00,
2013-02-10 23:21:00,12.2,-0.1,0.00,ESE,119,0.0,0.0,57,0.00,,---,0.00,VWS V14.00,2013-02-11 06:21:00,
2013-02-10 23:22:00,12.2,-0.1,0.00,ESE,119,0.0,0.0,57,0.00,,---,0.00,VWS V14.00,2013-02-11 06:22:00,
2013-02-10 23:26:00,12.0,-0.3,0.00,ESE,119,0.0,0.0,57,0.00,,---,0.00,VWS V14.00,2013-02-11 06:26:00,
2013-02-10 23:27:00,12.0,-0.3,0.00,ESE,117,0.0,0.0,57,0.00,,---,0.00,VWS V14.00,2013-02-11 06:27:00,
2013-02-10 23:31:00,12.0,-0.3,0.00,ESE,115,0.0,0.0,57,0.00,,---,0.00,VWS V14.00,2013-02-11 06:31:00,
2013-02-10 23:32:00,12.0,-0.3,0.00,ESE,115,0.0,0.0,57,0.00,,---,0.00,VWS V14.00,2013-02-11 06:32:00,
2013-02-10 23:36:00,12.0,-0.3,0.00,ESE,115,0.0,0.0,57,0.00,,---,0.00,VWS V14.00,2013-02-11 06:36:00,
2013-02-10 23:37:00,12.0,-0.3,0.00,ESE,120,0.0,0.0,57,0.00,,---,0.00,VWS V14.00,2013-02-11 06:37:00,
2013-02-10 23:41:00,11.8,-0.4,0.00,ESE,120,0.0,0.0,57,0.00,,---,0.00,VWS V14.00,2013-02-11 06:41:00,
2013-02-10 23:42:00,11.8,-0.4,0.00,ESE,120,0.0,0.0,57,0.00,,---,0.00,VWS V14.00,2013-02-11 06:42:00,
2013-02-10 23:46:00,11.8,-0.4,0.00,ESE,120,0.0,0.0,57,0.00,,---,0.00,VWS V14.00,2013-02-11 06:46:00,
2013-02-10 23:47:00,11.8,-0.4,0.00,ESE,120,0.0,0.0,57,0.00,,---,0.00,VWS V14.00,2013-02-11 06:47:00,
2013-02-10 23:51:00,11.8,-0.4,0.00,ESE,120,0.0,0.0,57,0.00,,---,0.00,VWS V14.00,2013-02-11 06:51:00,
2013-02-10 23:52:00,11.8,-0.4,0.00,ESE,120,0.0,0.0,57,0.00,,---,0.00,VWS V14.00,2013-02-11 06:52:00,
2013-02-10 23:56:00,11.8,-0.4,0.00,ESE,120,0.0,0.0,57,0.00,,---,0.00,VWS V14.00,2013-02-11 06:56:00,
2013-02-10 23:57:00,11.8,-0.4,0.00,ESE,120,0.0,0.0,57,0.00,,---,0.00,VWS V14.00,2013-02-11 06:57:00,